DL9MFL-6 Weather Reports


time (UTC)temp
F
wind
direction
speed
knots
gust
knots
rain 1hr
in
rain 24hr
in
rain mn
in
humidity
%
barometer
mb
20260901030600 55 82 0.9 1.7 0.00 0.00 0.00 81 1020.0
20260901030500 55 80 0.9 1.7 0.00 0.00 0.00 81 1020.0
20260901030400 55 80 0.9 1.7 0.00 0.00 0.00 81 1020.0
20260901030300 55 71 0.9 1.7 0.00 0.00 0.00 81 1020.0
20260901030200 55 71 0.9 1.7 0.00 0.00 0.00 81 1020.0
20260901030001 55 67 0.9 1.7 0.00 0.00 0.00 81 1020.0
20260901025901 56 67 0.9 1.7 0.00 0.00 0.00 81 1020.1
20260901025801 56 67 0.9 1.7 0.00 0.00 0.00 81 1020.1
20260901025701 56 67 0.9 1.7 0.00 0.00 0.00 81 1020.1
20260901025601 56 67 0.9 1.7 0.00 0.00 0.00 81 1020.1
20260901025500 56 67 0.9 1.7 0.00 0.00 0.00 81 1020.1
20260901025401 56 67 0.9 1.7 0.00 0.00 0.00 81 1020.0
20260901025301 56 67 0.9 1.7 0.00 0.00 0.00 81 1020.1
20260901025201 56 67 0.0 1.7 0.00 0.00 0.00 81 1020.1
20260901025101 56 67 0.0 1.7 0.00 0.00 0.00 81 1020.1
20260901025001 56 67 0.0 1.7 0.00 0.00 0.00 81 1020.1
20260901024901 56 67 0.0 1.7 0.00 0.00 0.00 81 1020.1
20260901024801 56 64 0.9 1.7 0.00 0.00 0.00 80 1020.0
20260901024701 56 64 0.9 1.7 0.00 0.01 0.00 80 1020.1
20260901024601 56 64 0.9 1.7 0.00 0.01 0.00 80 1020.0
20260901024501 56 64 0.0 1.7 0.00 0.01 0.00 80 1020.1
20260901024401 56 64 0.0 1.7 0.00 0.01 0.00 80 1020.1
20260901024301 56 64 0.0 1.7 0.00 0.01 0.00 80 1020.1
20260901024201 56 64 0.0 1.7 0.00 0.01 0.00 80 1020.1
20260901024100 56 64 0.9 1.7 0.00 0.01 0.00 80 1020.1
20260901024001 56 64 0.9 2.6 0.00 0.02 0.00 80 1020.0
20260901023905 56 64 0.9 2.6 0.00 0.02 0.00 80 1020.1
20260901023801 56 64 0.9 2.6 0.00 0.02 0.00 79 1020.1
20260901023701 56 64 0.9 2.6 0.00 0.02 0.00 79 1020.1
20260901023601 56 64 0.9 2.6 0.00 0.02 0.00 79 1020.1
20260901023500 56 64 0.9 2.6 0.00 0.02 0.00 79 1020.0
20260901023404 56 64 0.9 3.5 0.00 0.02 0.00 79 1020.1
20260901023300 57 64 0.9 3.5 0.00 0.03 0.00 79 1020.1
20260901023200 57 64 0.9 3.5 0.00 0.03 0.00 79 1020.1
20260901023100 57 64 0.9 3.5 0.00 0.03 0.00 79 1020.0
20260901023000 57 81 0.9 3.5 0.00 0.03 0.00 79 1020.1
20260901022904 57 81 0.9 3.5 0.00 0.03 0.00 79 1020.1
20260901022900 57 81 0.9 3.5 0.00 0.03 0.00 79 1020.1
20260901022758 57 81 0.9 3.5 0.00 0.03 0.00 78 1020.1
20260901022656 57 81 0.9 3.5 0.00 0.04 0.00 78 1020.0
20260901022556 57 82 0.9 3.5 0.00 0.04 0.00 78 1020.0
20260901022454 57 82 0.9 3.5 0.00 0.04 0.00 78 1020.0
20260901022402 57 84 0.9 3.5 0.00 0.05 0.00 78 1020.1
20260901022353 57 88 0.9 3.5 0.00 0.05 0.00 78 1020.1
20260901022252 57 175 0.9 2.6 0.00 0.06 0.00 78 1020.0
20260901022150 57 175 0.9 2.6 0.00 0.07 0.00 78 1020.1
20260901022050 57 175 0.9 2.6 0.00 0.08 0.00 78 1020.0
20260901021948 57 175 0.0 2.6 0.00 0.09 0.00 78 1020.1
20260901021901 57 218 0.0 2.6 0.00 0.09 0.00 78 1020.0
20260901021846 57 218 0.0 2.6 0.00 0.09 0.00 78 1020.0
20260901021746 57 225 0.0 2.6 0.00 0.10 0.00 77 1020.1
20260901021646 57 243 0.0 2.6 0.00 0.11 0.00 77 1020.1
20260901021546 57 244 0.0 1.7 0.00 0.12 0.00 77 1020.0
20260901021446 58 244 0.0 1.7 0.00 0.12 0.00 77 1020.0
20260901021401 58 244 0.0 1.7 0.00 0.12 0.00 77 1020.1
20260901021344 58 244 0.0 1.7 0.00 0.12 0.00 77 1020.1
20260901021244 58 244 0.0 1.7 0.00 0.12 0.00 77 1020.0
20260901021142 58 244 0.9 1.7 0.00 0.12 0.00 76 1020.1
20260901021042 58 244 0.9 1.7 0.00 0.12 0.00 76 1020.1
20260901020940 58 244 0.9 1.7 0.00 0.12 0.00 76 1020.0
20260901020900 58 244 0.9 1.7 0.00 0.12 0.00 76 1020.0
20260901020840 58 244 0.9 1.7 0.00 0.12 0.00 76 1020.0
20260901020738 58 244 0.9 1.7 0.00 0.12 0.00 76 1020.0
20260901020636 58 244 0.9 1.7 0.00 0.12 0.00 76 1020.0
20260901020536 58 244 0.9 1.7 0.00 0.12 0.00 76 1020.0
20260901020434 58 244 0.9 1.7 0.00 0.12 0.00 76 1020.0
20260901020400 58 244 0.9 1.7 0.00 0.12 0.00 76 1020.0
20260901020334 58 244 0.9 1.7 0.00 0.12 0.00 76 1020.0
20260901020234 58 244 0.9 1.7 0.00 0.13 0.00 76 1020.0
20260901020134 58 244 0.9 2.6 0.00 0.13 0.00 76 1020.0
20260901020034 58 244 0.9 2.6 0.00 0.13 0.00 76 1020.0
20260901015932 58 244 0.9 2.6 0.00 0.13 0.00 76 1020.0
20260901015901 58 244 0.9 2.6 0.00 0.13 0.00 76 1020.0
20260901015832 58 244 0.9 2.6 0.00 0.13 0.00 76 1020.0
20260901015730 58 244 0.9 2.6 0.00 0.13 0.00 76 1020.0
20260901015629 58 244 0.9 2.6 0.00 0.13 0.00 76 1020.0
20260901015624 58 244 0.9 2.6 0.00 0.14 0.00 76 1020.0
20260901015616 58 244 0.9 2.6 0.00 0.13 0.00 76 1019.9
20260901015612 58 244 0.9 2.6 0.00 0.13 0.00 76 1020.0
20260901015329 58 244 0.9 2.6 0.00 0.14 0.00 76 1020.0
20260901015229 58 244 1.7 2.6 0.00 0.14 0.00 76 1020.0
20260901015129 58 244 1.7 2.6 0.00 0.14 0.00 76 1020.0
20260901015029 58 244 1.7 2.6 0.00 0.14 0.00 76 1020.0
20260901014929 58 244 1.7 2.6 0.00 0.14 0.00 76 1019.9
20260901014901 58 244 1.7 2.6 0.00 0.14 0.00 76 1020.0
20260901014829 58 244 1.7 2.6 0.00 0.14 0.00 76 1020.0
20260901014729 58 244 1.7 2.6 0.00 0.14 0.00 76 1020.0
20260901014629 58 232 1.7 2.6 0.00 0.14 0.00 76 1020.0
20260901014529 58 232 0.9 2.6 0.00 0.14 0.00 76 1020.0
20260901014429 58 229 0.9 2.6 0.00 0.14 0.00 76 1020.0
20260901014401 58 229 1.7 2.6 0.00 0.14 0.00 76 1020.0
20260901014329 58 229 1.7 2.6 0.00 0.14 0.00 76 1020.0
20260901014229 58 229 0.9 2.6 0.00 0.14 0.00 76 1020.0
20260901014129 58 229 0.9 2.6 0.00 0.14 0.00 76 1020.0
20260901014028 58 229 0.9 2.6 0.00 0.14 0.00 76 1019.9
20260901013901 58 229 0.9 2.6 0.00 0.14 0.00 76 1020.0
20260901013855 58 229 0.0 2.6 0.00 0.14 0.00 77 1020.0
20260901013848 58 229 0.9 2.6 0.00 0.14 0.00 76 1020.0
20260901013844 58 229 0.9 2.6 0.00 0.14 0.00 76 1020.0
20260901013840 58 229 0.9 2.6 0.00 0.14 0.00 76 1020.0
20260901013617 58 229 0.9 2.6 0.00 0.14 0.00 76 1020.0
20260901013612 58 229 0.9 2.6 0.00 0.14 0.00 77 1020.0
20260901013326 58 229 0.0 2.6 0.00 0.14 0.00 77 1020.0
20260901013224 58 229 0.0 1.7 0.00 0.14 0.00 76 1020.0
20260901013124 58 229 0.0 1.7 0.00 0.14 0.00 76 1020.0
20260901013023 58 229 0.0 1.7 0.00 0.14 0.00 76 1020.0
20260901012901 58 229 0.0 1.7 0.00 0.14 0.00 76 1020.0
20260901012820 58 229 0.0 1.7 0.00 0.14 0.00 77 1020.0
20260901012720 58 229 0.0 0.9 0.00 0.14 0.00 76 1020.0
20260901012620 58 229 0.9 1.7 0.00 0.14 0.00 76 1020.0
20260901012520 58 229 0.9 1.7 0.00 0.14 0.00 76 1019.9
20260901012420 58 229 0.9 1.7 0.00 0.14 0.00 76 1019.9
20260901012401 58 229 0.9 1.7 0.00 0.14 0.00 77 1019.9
20260901012320 58 229 0.9 1.7 0.00 0.14 0.00 77 1019.9
20260901012220 58 229 0.0 1.7 0.00 0.14 0.00 77 1019.9
20260901012119 58 229 0.0 1.7 0.00 0.14 0.00 77 1020.0
20260901012020 58 229 0.0 1.7 0.00 0.14 0.00 77 1019.9
20260901011920 58 229 0.0 1.7 0.00 0.14 0.00 77 1019.9
20260901011901 58 229 0.0 1.7 0.00 0.14 0.00 76 1019.9
20260901011820 58 229 0.0 1.7 0.00 0.14 0.00 76 1019.9
20260901011718 57 229 0.0 1.7 0.00 0.14 0.00 76 1019.9
20260901011618 57 229 0.0 1.7 0.00 0.14 0.00 77 1019.9
20260901011516 57 229 0.0 1.7 0.00 0.14 0.00 77 1019.9
20260901011416 57 229 0.0 1.7 0.00 0.14 0.00 77 1019.9
20260901011400 57 229 0.0 1.7 0.00 0.14 0.00 78 1019.9
20260901011314 57 229 0.9 1.7 0.00 0.14 0.00 78 1019.9
20260901011212 57 229 0.9 2.6 0.00 0.14 0.00 77 1019.9
20260901011111 57 229 0.9 2.6 0.00 0.14 0.00 77 1019.9
20260901011009 57 229 0.9 2.6 0.00 0.14 0.00 77 1019.9
20260901010901 57 229 0.9 2.6 0.00 0.14 0.00 77 1019.9
20260901010808 57 229 0.9 2.6 0.00 0.14 0.00 77 1019.9
20260901010706 57 229 0.9 2.6 0.00 0.14 0.00 77 1019.9
20260901010606 57 229 0.9 2.6 0.00 0.14 0.00 78 1019.9
20260901010504 57 229 0.9 2.6 0.00 0.14 0.00 78 1019.9
20260901010401 57 229 0.9 2.6 0.00 0.14 0.00 78 1019.9
20260901010303 57 229 0.0 2.6 0.00 0.14 0.00 79 1019.9
20260901010204 57 229 0.9 1.7 0.00 0.14 0.00 79 1019.8
20260901010104 57 229 0.9 2.6 0.00 0.14 0.00 79 1019.8
20260901010002 57 229 0.9 2.6 0.00 0.14 0.00 78 1019.8
20260901005901 57 229 0.9 2.6 0.00 0.14 0.00 77 1019.8
20260901005801 57 229 0.9 2.6 0.00 0.14 0.00 77 1019.8
20260901005701 57 229 0.9 2.6 0.00 0.14 0.00 77 1019.8
20260901005602 57 229 0.9 2.6 0.00 0.14 0.00 78 1019.8
20260901005502 57 229 0.9 2.6 0.00 0.14 0.00 79 1019.8
20260901005401 57 229 0.9 2.6 0.00 0.14 0.00 79 1019.8
20260901005301 57 229 0.9 2.6 0.00 0.14 0.00 79 1019.8
20260901005201 57 229 0.9 2.6 0.00 0.14 0.00 80 1019.8
20260901005101 57 143 0.9 1.7 0.00 0.14 0.00 80 1019.8
20260901005001 57 143 0.9 1.7 0.00 0.14 0.00 81 1019.8
20260901004902 57 143 0.0 1.7 0.00 0.14 0.00 81 1019.8
20260901004800 57 143 0.0 1.7 0.00 0.14 0.00 81 1019.8
20260901004701 57 143 0.0 1.7 0.00 0.14 0.00 81 1019.8
20260901004601 57 143 0.0 1.7 0.00 0.14 0.00 80 1019.8
20260901004501 57 143 0.0 1.7 0.00 0.14 0.00 81 1019.7
20260901004401 57 143 0.0 1.7 0.00 0.14 0.00 81 1019.8
20260901004301 57 143 0.0 0.9 0.00 0.14 0.00 81 1019.7
20260901004201 57 143 0.0 0.0 0.00 0.14 0.00 81 1019.7
20260901004101 57 143 0.0 0.0 0.00 0.14 0.00 81 1019.7
20260901004001 57 143 0.0 0.0 0.00 0.14 0.00 81 1019.8
20260901003901 57 143 0.0 0.0 0.00 0.14 0.00 81 1019.7
20260901003801 57 143 0.0 0.0 0.00 0.14 0.00 80 1019.8
20260901003701 57 143 0.0 0.0 0.00 0.14 0.00 80 1019.7
20260901003620 57 143 0.0 0.0 0.00 0.14 0.00 80 1019.7
20260901003616 57 143 0.0 0.0 0.00 0.14 0.00 81 1019.8
20260901003612 57 143 0.0 0.0 0.00 0.14 0.00 81 1019.7
20260901003300 57 143 0.0 0.0 0.00 0.14 0.00 81 1019.7
20260901003200 57 143 0.0 0.0 0.00 0.14 0.00 81 1019.7
20260901003101 57 143 0.0 0.0 0.00 0.14 0.00 81 1019.7
20260901003001 57 143 0.0 0.0 0.00 0.14 0.00 81 1019.7
20260901002901 57 143 0.0 0.0 0.00 0.14 0.00 81 1019.7
20260901002801 57 143 0.0 0.0 0.00 0.14 0.00 81 1019.8
20260901002702 57 143 0.0 0.0 0.00 0.14 0.00 81 1019.7
20260901002620 57 143 0.0 0.0 0.00 0.14 0.00 80 1019.7
20260901002616 57 143 0.0 0.0 0.00 0.14 0.00 80 1019.7
20260901002612 57 143 0.0 0.0 0.00 0.14 0.00 81 1019.7
20260901002306 57 143 0.0 0.0 0.00 0.14 0.00 81 1019.7
20260901002201 57 143 0.0 0.0 0.00 0.14 0.00 81 1019.7
20260901002101 57 143 0.0 0.0 0.00 0.14 0.00 81 1019.7
20260901002001 57 143 0.0 0.0 0.00 0.14 0.00 81 1019.7
20260901001901 57 143 0.0 0.0 0.00 0.14 0.00 81 1019.7
20260901001804 57 143 0.0 0.0 0.00 0.14 0.00 80 1019.7
20260901001701 57 143 0.0 0.0 0.00 0.14 0.00 80 1019.7
20260901001600 57 143 0.0 0.0 0.00 0.14 0.00 81 1019.7
20260901001500 57 143 0.0 0.0 0.00 0.14 0.00 80 1019.7
20260901001401 57 143 0.0 0.0 0.00 0.14 0.00 80 1019.7
20260901001301 57 143 0.0 0.0 0.00 0.14 0.00 80 1019.7
20260901001200 57 143 0.0 0.0 0.00 0.14 0.00 80 1019.7
20260901001121 57 143 0.0 0.0 0.00 0.14 0.00 80 1019.7
20260901001117 57 143 0.0 0.0 0.00 0.14 0.00 80 1019.7
20260901001112 57 143 0.0 0.0 0.00 0.14 0.00 80 1019.7
20260901000801 57 143 0.0 0.0 0.00 0.14 0.00 80 1019.7
20260901000700 57 143 0.0 0.0 0.00 0.14 0.00 80 1019.7
20260901000558 57 143 0.0 0.0 0.00 0.14 0.00 80 1019.7
20260901000458 57 143 0.0 0.0 0.00 0.14 0.00 80 1019.7
20260901000402 57 143 0.0 0.0 0.00 0.14 0.00 80 1019.7
20260901000358 57 143 0.0 0.0 0.00 0.14 0.00 80 1019.7
20260901000258 57 143 0.0 0.0 0.00 0.14 0.00 80 1019.7
20260901000157 57 143 0.0 0.0 0.00 0.14 0.00 80 1019.7
20260901000057 57 143 0.0 0.0 0.00 0.14 0.00 80 1019.7
20260831235958 57 143 0.0 0.0 0.00 0.14 0.00 80 1019.7
20260831235901 57 143 0.0 0.0 0.00 0.14 0.00 80 1019.7
20260831235856 57 143 0.0 0.0 0.00 0.14 0.00 80 1019.7
20260831235756 57 143 0.0 0.9 0.00 0.14 0.00 80 1019.7
20260831235653 57 143 0.0 0.9 0.00 0.14 0.00 80 1019.7
20260831235618 57 143 0.0 0.9 0.00 0.14 0.00 79 1019.5
20260831235613 57 143 0.0 0.9 0.00 0.14 0.00 80 1019.7
20260831235605 57 143 0.0 0.9 0.00 0.14 0.00 79 1019.7
20260831235350 57 143 0.0 0.9 0.00 0.14 0.00 79 1019.7
20260831235341 57 143 0.0 0.9 0.00 0.14 0.00 80 1019.5
20260831235334 57 143 0.0 0.9 0.00 0.14 0.00 80 1019.7
20260831235116 57 143 0.0 0.9 0.00 0.14 0.00 80 1019.5
20260831235112 57 143 0.0 0.9 0.00 0.14 0.00 79 1019.7
20260831234839 57 143 0.0 0.9 0.00 0.14 0.00 79 1019.5
20260831234740 57 143 0.0 0.9 0.00 0.14 0.00 79 1019.7
20260831234640 57 143 0.0 0.9 0.00 0.14 0.00 79 1019.5
20260831234539 57 143 0.0 0.9 0.00 0.14 0.00 78 1019.5
20260831234439 57 143 0.0 0.9 0.00 0.14 0.00 78 1019.5
20260831234338 57 143 0.0 0.9 0.00 0.14 0.00 78 1019.5
20260831234237 57 143 0.0 0.9 0.00 0.14 0.00 78 1019.5
20260831234136 57 143 0.0 0.9 0.00 0.14 0.00 78 1019.7
20260831234034 57 143 0.0 1.7 0.00 0.14 0.00 78 1019.5
20260831233932 57 143 0.0 1.7 0.00 0.14 0.00 78 1019.7
20260831233832 58 143 0.0 1.7 0.00 0.14 0.00 78 1019.5
20260831233732 58 143 0.0 1.7 0.00 0.14 0.00 78 1019.5
20260831233632 58 143 0.0 1.7 0.00 0.14 0.00 78 1019.5
20260831233613 58 143 0.0 1.7 0.00 0.14 0.00 78 1019.5
20260831233605 58 143 0.0 1.7 0.00 0.14 0.00 78 1019.5
20260831233601 58 143 0.0 1.7 0.00 0.14 0.00 78 1019.5
20260831233331 58 143 0.0 1.7 0.00 0.14 0.00 78 1019.5
20260831233230 58 143 0.0 1.7 0.00 0.14 0.00 78 1019.5
20260831233129 58 143 0.0 1.7 0.00 0.14 0.00 78 1019.7
20260831233029 58 143 0.0 1.7 0.00 0.14 0.00 78 1019.5
20260831232929 58 143 0.0 1.7 0.00 0.14 0.00 79 1019.5
20260831232829 58 143 0.0 1.7 0.00 0.14 0.00 79 1019.5
20260831232729 58 143 0.0 1.7 0.00 0.14 0.00 79 1019.7
20260831232629 58 143 0.0 1.7 0.00 0.14 0.00 78 1019.7
20260831232529 58 143 0.0 1.7 0.00 0.14 0.00 78 1019.7
20260831232429 58 143 0.0 1.7 0.00 0.14 0.00 78 1019.7
20260831232329 58 143 0.0 1.7 0.00 0.14 0.00 77 1019.7
20260831232226 58 143 0.0 1.7 0.00 0.14 0.00 78 1019.7
20260831232124 58 143 0.0 1.7 0.00 0.14 0.00 78 1019.7
20260831232023 58 143 0.0 1.7 0.00 0.14 0.00 77 1019.5
20260831231921 58 143 0.0 1.7 0.00 0.14 0.00 77 1019.5
20260831231821 58 143 0.0 1.7 0.00 0.14 0.00 77 1019.7
20260831231717 58 143 0.0 1.7 0.00 0.14 0.00 77 1019.7
20260831231616 58 143 0.0 1.7 0.00 0.14 0.00 78 1019.7
20260831231516 58 143 0.0 1.7 0.00 0.14 0.00 78 1019.7
20260831231416 58 143 0.0 1.7 0.00 0.14 0.00 78 1019.7
20260831231345 58 144 0.0 1.7 0.00 0.14 0.00 78 1019.7
20260831231316 58 144 0.9 1.7 0.00 0.14 0.00 78 1019.7
20260831231212 58 144 0.0 1.7 0.00 0.14 0.00 78 1019.7
20260831231110 58 144 0.0 1.7 0.00 0.14 0.00 78 1019.5
20260831231007 58 144 0.0 1.7 0.00 0.14 0.00 79 1019.7
20260831230907 58 144 0.0 1.7 0.00 0.14 0.00 78 1019.5
20260831230844 58 144 0.0 1.7 0.00 0.14 0.00 78 1019.5
20260831230808 58 144 0.0 1.7 0.00 0.14 0.00 78 1019.7
20260831230703 58 144 0.0 1.7 0.00 0.14 0.00 78 1019.5
20260831230601 58 144 0.0 1.7 0.00 0.14 0.00 78 1019.5
20260831230502 58 144 0.0 1.7 0.00 0.14 0.00 78 1019.5
20260831230402 58 150 0.0 1.7 0.00 0.14 0.00 78 1019.5
20260831230344 58 150 0.0 1.7 0.00 0.14 0.00 78 1019.5
20260831230302 58 159 0.0 1.7 0.00 0.14 0.00 78 1019.5
20260831230201 58 159 0.0 1.7 0.00 0.14 0.00 78 1019.5
20260831230101 58 159 0.0 1.7 0.00 0.14 0.00 78 1019.7
20260831230002 58 159 0.0 1.7 0.00 0.14 0.00 78 1019.7
20260831225902 58 159 0.0 1.7 0.00 0.14 0.00 77 1019.7
20260831225842 58 159 0.0 1.7 0.00 0.14 0.00 77 1019.7
20260831225801 58 159 0.0 1.7 0.00 0.14 0.00 77 1019.7
20260831225701 58 159 0.0 1.7 0.00 0.14 0.00 77 1019.7
20260831225601 58 159 0.9 1.7 0.00 0.14 0.00 77 1019.7
20260831225501 58 159 0.9 1.7 0.00 0.14 0.00 77 1019.7
20260831225401 58 159 0.9 1.7 0.00 0.14 0.00 77 1019.7
20260831225340 58 159 0.9 1.7 0.00 0.14 0.00 77 1019.7
20260831225301 58 159 0.0 1.7 0.00 0.14 0.00 77 1019.7
20260831225201 58 159 0.0 1.7 0.00 0.14 0.00 77 1019.7
20260831225100 58 160 0.0 1.7 0.00 0.14 0.00 76 1019.5
20260831225001 58 160 0.0 1.7 0.00 0.14 0.00 76 1019.7
20260831224901 58 160 0.0 1.7 0.00 0.14 0.00 76 1019.7
20260831224838 58 159 0.0 1.7 0.00 0.14 0.00 76 1019.7
20260831224801 58 159 0.0 1.7 0.00 0.14 0.00 76 1019.7
20260831224701 59 159 0.0 1.7 0.00 0.14 0.00 76 1019.7
20260831224601 59 159 0.0 1.7 0.00 0.14 0.00 76 1019.7
20260831224501 59 159 0.0 1.7 0.00 0.14 0.00 76 1019.7
20260831224401 59 159 0.0 1.7 0.00 0.14 0.00 76 1019.7
20260831224337 59 160 0.0 1.7 0.00 0.14 0.00 76 1019.7
20260831224300 59 159 0.0 1.7 0.00 0.14 0.00 76 1019.8
20260831224200 59 159 0.0 1.7 0.00 0.14 0.00 77 1019.7
20260831224100 59 159 0.0 1.7 0.00 0.14 0.00 75 1019.7
20260831224000 59 159 0.0 1.7 0.00 0.14 0.00 76 1019.7
20260831223900 59 159 0.0 1.7 0.00 0.14 0.00 75 1019.8
20260831223838 59 159 0.0 1.7 0.00 0.14 0.00 75 1019.8
20260831223801 59 159 0.0 1.7 0.00 0.14 0.00 74 1019.8
20260831223700 59 160 0.0 1.7 0.00 0.14 0.00 74 1019.8
20260831223600 59 160 0.0 1.7 0.00 0.14 0.00 74 1019.8
20260831223500 59 160 0.0 1.7 0.00 0.14 0.00 73 1019.8
20260831223401 59 159 0.9 1.7 0.00 0.14 0.00 73 1019.8
20260831223338 59 159 0.9 1.7 0.00 0.14 0.00 73 1019.8
20260831223301 59 159 0.9 1.7 0.00 0.14 0.00 73 1019.7
20260831223202 59 159 0.9 1.7 0.00 0.14 0.00 73 1019.7
20260831223102 59 160 0.9 1.7 0.00 0.14 0.00 73 1019.7
20260831223055 59 159 0.9 1.7 0.00 0.14 0.00 73 1019.7
20260831223049 59 160 0.9 1.7 0.00 0.14 0.00 73 1019.7
20260831223045 59 160 0.9 1.7 0.00 0.14 0.00 73 1019.7
20260831222801 59 159 0.9 1.7 0.00 0.14 0.00 73 1019.7
20260831222701 59 160 0.9 1.7 0.00 0.14 0.00 72 1019.7
20260831222601 59 160 0.9 1.7 0.00 0.14 0.00 72 1019.7
20260831222501 59 160 0.9 1.7 0.00 0.14 0.00 72 1019.7
20260831222401 59 160 0.0 1.7 0.00 0.14 0.00 72 1019.7
20260831222331 59 160 0.0 1.7 0.00 0.14 0.00 72 1019.7
20260831222300 59 160 0.0 1.7 0.00 0.14 0.00 72 1019.7
20260831222200 59 161 0.0 1.7 0.00 0.14 0.00 72 1019.7
20260831222100 59 172 0.0 1.7 0.00 0.14 0.00 72 1019.7
20260831222000 59 223 0.0 1.7 0.00 0.14 0.00 72 1019.7
20260831221900 59 227 0.0 1.7 0.00 0.14 0.00 72 1019.7
20260831221801 59 227 0.0 1.7 0.00 0.14 0.00 72 1019.7
20260831221701 60 227 0.0 1.7 0.00 0.14 0.00 71 1019.7
20260831221601 60 227 0.0 1.7 0.00 0.14 0.00 71 1019.7
20260831221501 60 227 0.9 2.6 0.00 0.14 0.00 71 1019.7
20260831221401 60 227 0.9 3.5 0.00 0.14 0.00 71 1019.7
20260831221301 60 227 0.9 3.5 0.00 0.14 0.00 71 1019.7
20260831221201 60 227 0.9 3.5 0.00 0.14 0.00 71 1019.7
20260831221101 60 227 0.9 3.5 0.00 0.14 0.00 70 1019.7
20260831221001 60 227 1.7 3.5 0.00 0.14 0.00 70 1019.7
20260831220901 60 227 1.7 3.5 0.00 0.14 0.00 70 1019.7
20260831220831 60 227 1.7 3.5 0.00 0.14 0.00 70 1019.7
20260831220800 60 227 1.7 3.5 0.00 0.14 0.00 70 1019.7
20260831220704 60 227 1.7 3.5 0.00 0.14 0.00 69 1019.7
20260831220600 60 227 1.7 3.5 0.00 0.14 0.00 68 1019.7
20260831220500 60 227 1.7 3.5 0.00 0.14 0.00 68 1019.7
20260831220400 60 227 1.7 3.5 0.00 0.14 0.00 68 1019.7
20260831220330 60 228 1.7 3.5 0.00 0.14 0.00 68 1019.7
20260831220302 60 227 1.7 3.5 0.00 0.14 0.00 68 1019.7
20260831220203 60 230 1.7 3.5 0.00 0.14 0.00 67 1019.7
20260831220101 60 230 1.7 3.5 0.00 0.14 0.00 67 1019.7
20260831220002 60 232 1.7 3.5 0.00 0.14 0.00 67 1019.7
20260831215902 60 236 0.9 3.5 0.00 0.14 0.14 67 1019.7
20260831215829 61 245 0.9 2.6 0.00 0.14 0.14 67 1019.7
20260831215800 60 245 0.9 2.6 0.00 0.14 0.14 68 1019.7
20260831215700 61 246 0.9 2.6 0.00 0.14 0.14 68 1019.7
20260831215601 61 246 0.9 2.6 0.00 0.14 0.14 67 1019.7
20260831215500 61 246 0.9 2.6 0.00 0.14 0.14 67 1019.7
20260831215400 61 245 0.9 2.6 0.00 0.14 0.14 68 1019.7
20260831215328 61 262 0.9 2.6 0.00 0.14 0.14 68 1019.7
20260831215300 61 263 0.9 2.6 0.00 0.14 0.14 67 1019.7
20260831215201 61 266 0.9 2.6 0.00 0.14 0.14 67 1019.7
20260831215100 61 266 0.9 2.6 0.00 0.14 0.14 67 1019.7
20260831215001 61 267 0.9 1.7 0.00 0.14 0.14 66 1019.7
20260831214901 61 267 0.9 1.7 0.00 0.14 0.14 66 1019.7
20260831214801 61 267 0.9 1.7 0.00 0.14 0.14 66 1019.7
20260831214701 61 267 0.9 1.7 0.00 0.14 0.14 66 1019.7
20260831214601 61 267 0.9 1.7 0.00 0.14 0.14 66 1019.5
20260831214501 61 267 0.9 1.7 0.00 0.14 0.14 66 1019.5
20260831214400 61 267 0.9 1.7 0.00 0.14 0.14 66 1019.5
20260831214329 61 267 0.9 1.7 0.00 0.14 0.14 66 1019.5
20260831214300 61 267 0.9 1.7 0.00 0.14 0.14 66 1019.4
20260831214200 62 267 0.9 1.7 0.00 0.14 0.14 66 1019.5
20260831214101 62 267 0.9 1.7 0.00 0.14 0.14 65 1019.4
20260831214000 62 267 0.9 1.7 0.00 0.14 0.14 66 1019.4
20260831213900 62 267 0.9 1.7 0.00 0.14 0.14 65 1019.4
20260831213800 62 267 0.9 1.7 0.00 0.14 0.14 65 1019.4
20260831213700 62 267 0.9 1.7 0.00 0.14 0.14 65 1019.4
20260831213600 62 267 0.9 1.7 0.00 0.14 0.14 65 1019.4
20260831213500 62 267 0.9 2.6 0.00 0.14 0.14 65 1019.4
20260831213401 62 267 0.9 2.6 0.00 0.14 0.14 64 1019.4
20260831213329 62 267 0.9 2.6 0.00 0.14 0.14 64 1019.4
20260831213301 62 267 1.7 3.5 0.00 0.14 0.14 64 1019.4
20260831213201 62 267 1.7 3.5 0.00 0.14 0.14 64 1019.4
20260831213101 62 267 1.7 3.5 0.00 0.14 0.14 64 1019.4
20260831213053 62 267 1.7 5.2 0.00 0.14 0.14 64 1019.4
20260831213046 62 267 1.7 4.3 0.00 0.14 0.14 64 1019.4
20260831213041 62 267 1.7 4.3 0.00 0.14 0.14 64 1019.4
20260831212801 62 267 1.7 5.2 0.00 0.14 0.14 64 1019.5
20260831212701 62 267 2.6 5.2 0.00 0.14 0.14 64 1019.5
20260831212601 62 267 2.6 5.2 0.00 0.14 0.14 63 1019.5
20260831212500 62 267 2.6 5.2 0.00 0.14 0.14 63 1019.5
20260831212401 63 267 2.6 5.2 0.00 0.14 0.14 63 1019.5
20260831212301 63 267 2.6 5.2 0.00 0.14 0.14 63 1019.5
20260831212201 63 256 2.6 5.2 0.00 0.14 0.14 63 1019.4
20260831212101 63 250 2.6 6.1 0.00 0.14 0.14 63 1019.5
20260831212001 63 246 3.5 6.1 0.00 0.14 0.14 62 1019.5
20260831211901 63 260 3.5 7.0 0.00 0.14 0.14 63 1019.5
20260831211829 63 249 3.5 7.0 0.00 0.14 0.14 63 1019.5
20260831211801 63 249 3.5 7.0 0.00 0.14 0.14 62 1019.5
20260831211700 63 268 3.5 7.0 0.00 0.14 0.14 62 1019.4
20260831211601 63 271 3.5 7.0 0.00 0.14 0.14 62 1019.4
20260831211501 63 252 4.3 7.0 0.00 0.14 0.14 62 1019.4
20260831211401 63 238 4.3 7.0 0.00 0.14 0.14 62 1019.4
20260831211328 63 278 4.3 7.0 0.00 0.14 0.14 62 1019.4
20260831211300 63 259 4.3 7.0 0.00 0.14 0.14 62 1019.4
20260831211201 63 250 4.3 7.0 0.00 0.14 0.14 61 1019.4
20260831211100 63 248 4.3 7.0 0.00 0.14 0.14 61 1019.4
20260831211049 63 257 5.2 7.0 0.00 0.14 0.14 61 1019.4
20260831211045 63 261 4.3 7.0 0.00 0.14 0.14 61 1019.4
20260831211041 63 243 5.2 7.0 0.00 0.14 0.14 61 1019.4
20260831210755 63 257 5.2 7.0 0.00 0.14 0.14 61 1019.5
20260831210655 63 248 5.2 7.8 0.00 0.14 0.14 61 1019.4
20260831210554 63 250 5.2 7.8 0.00 0.14 0.14 61 1019.4
20260831210453 63 266 4.3 7.8 0.00 0.14 0.14 61 1019.4
20260831210350 63 272 4.3 7.8 0.00 0.14 0.14 61 1019.4
20260831210328 63 276 4.3 7.8 0.00 0.14 0.14 61 1019.4
20260831210246 63 300 4.3 7.8 0.00 0.14 0.14 61 1019.3
20260831210146 63 271 4.3 7.8 0.00 0.14 0.14 61 1019.3
20260831210046 63 245 4.3 7.8 0.00 0.14 0.14 61 1019.3
20260831205946 64 274 4.3 7.8 0.00 0.14 0.14 61 1019.3
20260831205843 64 263 4.3 7.8 0.00 0.14 0.14 61 1019.3
20260831205829 64 252 4.3 7.8 0.00 0.14 0.14 61 1019.3
20260831205739 64 235 4.3 7.8 0.00 0.14 0.14 61 1019.3
20260831205639 64 261 4.3 7.8 0.00 0.14 0.14 61 1019.3
20260831205539 64 253 4.3 7.8 0.00 0.14 0.14 61 1019.3
20260831205439 64 260 5.2 7.8 0.00 0.14 0.14 61 1019.3
20260831205329 64 259 4.3 7.8 0.00 0.14 0.14 61 1019.3
20260831205319 64 277 4.3 7.8 0.00 0.14 0.14 61 1019.4
20260831205315 64 238 4.3 7.8 0.00 0.14 0.14 61 1019.3
20260831205310 64 257 5.2 7.8 0.00 0.14 0.14 61 1019.3
20260831205049 64 276 5.2 7.8 0.00 0.14 0.14 61 1019.3
20260831205045 64 283 5.2 7.8 0.00 0.14 0.14 61 1019.3
20260831205041 64 229 4.3 7.8 0.00 0.14 0.14 61 1019.4
20260831204732 64 279 4.3 7.8 0.00 0.14 0.14 61 1019.4
20260831204632 64 257 4.3 7.8 0.00 0.14 0.14 61 1019.4
20260831204530 64 295 4.3 7.8 0.00 0.14 0.14 61 1019.4
20260831204430 64 227 4.3 7.8 0.00 0.14 0.14 61 1019.3
20260831204328 64 267 4.3 8.7 0.00 0.14 0.14 61 1019.3
20260831204320 64 262 4.3 8.7 0.00 0.14 0.14 61 1019.3
20260831204316 64 277 4.3 8.7 0.00 0.14 0.14 61 1019.3
20260831204312 64 277 4.3 8.7 0.00 0.14 0.14 61 1019.4
20260831204047 64 327 4.3 8.7 0.00 0.14 0.14 62 1019.4
20260831204043 64 256 4.3 8.7 0.00 0.14 0.14 61 1019.3
20260831204038 64 258 4.3 8.7 0.00 0.14 0.14 61 1019.3
20260831203730 64 263 4.3 8.7 0.00 0.14 0.14 61 1019.3
20260831203629 64 244 3.5 8.7 0.00 0.14 0.14 61 1019.3
20260831203529 64 265 3.5 8.7 0.00 0.14 0.14 61 1019.3
20260831203429 64 267 3.5 8.7 0.00 0.14 0.14 61 1019.3
20260831203329 64 277 3.5 8.7 0.00 0.14 0.14 61 1019.3
20260831203229 64 267 3.5 8.7 0.00 0.14 0.14 61 1019.3
20260831203129 64 271 3.5 8.7 0.00 0.14 0.14 61 1019.3
20260831203029 64 255 3.5 8.7 0.00 0.14 0.14 61 1019.3
20260831202931 65 302 4.3 7.8 0.00 0.14 0.14 61 1019.1
20260831202829 65 275 4.3 7.8 0.00 0.14 0.14 61 1019.2
20260831202729 65 263 4.3 7.8 0.00 0.14 0.14 61 1019.1
20260831202629 65 292 4.3 7.8 0.00 0.14 0.14 61 1019.1
20260831202529 65 281 4.3 7.8 0.00 0.14 0.14 61 1019.2
20260831202429 65 286 4.3 7.8 0.00 0.14 0.14 61 1019.1
20260831202329 65 287 4.3 8.7 0.00 0.14 0.14 61 1019.1
20260831202230 65 270 4.3 8.7 0.00 0.14 0.14 60 1019.0
20260831202129 65 269 4.3 8.7 0.00 0.14 0.14 60 1019.0
20260831202048 65 266 4.3 8.7 0.00 0.14 0.14 60 1019.0
20260831202044 65 275 4.3 8.7 0.00 0.14 0.14 61 1019.0
20260831202040 65 267 4.3 8.7 0.00 0.14 0.14 61 1019.0
20260831201729 65 287 4.3 8.7 0.00 0.14 0.14 60 1018.9
20260831201629 65 283 3.5 8.7 0.00 0.14 0.14 60 1018.9
20260831201528 65 266 3.5 8.7 0.00 0.14 0.14 60 1018.9
20260831201428 65 284 3.5 8.7 0.00 0.14 0.14 60 1018.9
20260831201329 65 282 3.5 7.8 0.00 0.14 0.14 60 1018.9
20260831201228 65 281 3.5 7.8 0.00 0.14 0.14 61 1018.8
20260831201128 65 296 3.5 7.8 0.00 0.14 0.14 60 1018.8
20260831201025 65 297 3.5 7.8 0.00 0.14 0.14 60 1018.8
20260831200924 65 264 3.5 7.8 0.00 0.14 0.14 60 1018.8
20260831200829 65 293 3.5 7.8 0.00 0.14 0.14 60 1018.8
20260831200819 65 288 3.5 7.8 0.00 0.14 0.14 60 1018.8
20260831200718 65 275 3.5 7.8 0.00 0.14 0.14 60 1018.7
20260831200618 65 257 3.5 8.7 0.00 0.14 0.14 60 1018.7
20260831200519 65 286 4.3 8.7 0.00 0.14 0.14 60 1018.7
20260831200418 65 257 3.5 8.7 0.00 0.14 0.14 60 1018.7
20260831200330 65 252 3.5 8.7 0.00 0.14 0.14 60 1018.7
20260831200316 65 250 3.5 8.7 0.00 0.14 0.14 60 1018.6
20260831200216 65 271 4.3 8.7 0.00 0.14 0.14 60 1018.6
20260831200116 65 290 4.3 8.7 0.00 0.14 0.14 60 1018.7
20260831200052 65 269 4.3 9.6 0.00 0.14 0.14 59 1018.6
20260831200044 65 257 4.3 9.6 0.00 0.14 0.14 60 1018.6
20260831200040 65 252 4.3 9.6 0.00 0.14 0.14 59 1018.6
20260831195812 65 269 4.3 9.6 0.00 0.14 0.14 59 1018.6
20260831195712 65 268 4.3 9.6 0.00 0.14 0.14 59 1018.5
20260831195612 65 280 4.3 9.6 0.00 0.14 0.14 59 1018.5
20260831195512 65 250 4.3 9.6 0.00 0.14 0.14 59 1018.5
20260831195438 65 252 4.3 9.6 0.00 0.14 0.14 59 1018.5
20260831195434 65 268 4.3 9.6 0.00 0.14 0.14 59 1018.5
20260831195322 65 271 4.3 9.6 0.00 0.14 0.14 59 1018.4
20260831195208 65 253 4.3 9.6 0.00 0.14 0.14 59 1018.4
20260831195108 65 263 4.3 9.6 0.00 0.14 0.14 59 1018.4
20260831195053 65 261 4.3 7.8 0.00 0.14 0.14 59 1018.3
20260831195044 65 257 4.3 7.0 0.00 0.14 0.14 59 1018.4
20260831195040 65 302 4.3 7.8 0.00 0.14 0.14 59 1018.3
20260831194804 65 251 4.3 7.8 0.00 0.14 0.14 59 1018.3
20260831194704 65 261 4.3 7.8 0.00 0.14 0.14 60 1018.3
20260831194602 65 263 4.3 7.8 0.00 0.14 0.14 60 1018.3
20260831194502 65 251 4.3 7.8 0.00 0.14 0.14 60 1018.3
20260831194403 65 284 4.3 7.8 0.00 0.14 0.14 60 1018.2
20260831194329 65 277 4.3 7.8 0.00 0.14 0.14 60 1018.2
20260831194302 65 246 4.3 7.8 0.00 0.14 0.14 60 1018.3
20260831194202 65 252 4.3 7.8 0.00 0.14 0.14 60 1018.3
20260831194102 65 283 4.3 7.8 0.00 0.14 0.14 60 1018.3
20260831194002 65 259 3.5 7.8 0.00 0.14 0.14 60 1018.3
20260831193901 65 272 3.5 7.8 0.00 0.14 0.14 60 1018.3
20260831193830 65 265 3.5 7.8 0.00 0.14 0.14 60 1018.3
20260831193801 65 248 3.5 7.8 0.00 0.14 0.14 60 1018.3
20260831193701 65 271 3.5 7.8 0.00 0.14 0.14 61 1018.3
20260831193603 65 246 2.6 7.8 0.00 0.14 0.14 61 1018.3
20260831193501 65 263 2.6 7.8 0.00 0.14 0.14 61 1018.3
20260831193401 65 270 2.6 6.1 0.00 0.14 0.14 61 1018.3
20260831193329 65 259 2.6 5.2 0.00 0.14 0.14 61 1018.3
20260831193301 65 258 2.6 5.2 0.00 0.14 0.14 61 1018.2
20260831193203 65 295 2.6 5.2 0.00 0.14 0.14 62 1018.3
20260831193101 65 254 2.6 5.2 0.00 0.14 0.14 62 1018.2
20260831193026 65 291 1.7 3.5 0.00 0.14 0.14 63 1018.2
20260831193022 66 267 1.7 2.6 0.00 0.14 0.14 61 1018.0
20260831193017 65 288 2.6 4.3 0.00 0.14 0.14 63 1018.2
20260831193013 65 269 2.6 4.3 0.00 0.14 0.14 63 1018.2
20260831193009 65 264 2.6 4.3 0.00 0.14 0.14 63 1018.2
20260831193005 65 264 1.7 4.3 0.00 0.14 0.14 63 1018.2
20260831192750 65 273 1.7 4.3 0.00 0.14 0.14 63 1018.2
20260831192746 65 287 1.7 4.3 0.00 0.14 0.14 63 1018.2
20260831192738 65 280 1.7 3.5 0.00 0.14 0.14 62 1018.1
20260831192734 65 280 1.7 3.5 0.00 0.14 0.14 62 1018.1
20260831192305 65 291 1.7 3.5 0.00 0.14 0.14 63 1018.2
20260831192259 66 286 1.7 3.5 0.00 0.14 0.14 62 1018.1
20260831192255 66 286 1.7 3.5 0.00 0.14 0.14 62 1018.1
20260831192247 66 286 1.7 2.6 0.00 0.14 0.14 62 1018.0
20260831192243 66 286 1.7 2.6 0.00 0.14 0.14 62 1018.0
20260831191812 66 286 1.7 2.6 0.00 0.14 0.14 62 1018.0
20260831191808 66 286 1.7 2.6 0.00 0.14 0.14 61 1018.0
20260831191804 66 267 1.7 2.6 0.00 0.14 0.14 61 1018.0
20260831191543 66 267 1.7 2.6 0.00 0.14 0.14 61 1018.0
20260831191539 66 267 1.7 2.6 0.00 0.14 0.14 61 1018.0
20260831191258 66 267 1.7 2.6 0.00 0.14 0.14 61 1017.9
20260831191158 66 267 1.7 2.6 0.00 0.14 0.14 60 1017.9
20260831191056 67 267 1.7 2.6 0.00 0.14 0.14 60 1017.9
20260831190954 67 267 1.7 2.6 0.00 0.14 0.14 60 1017.9
20260831190830 67 267 1.7 2.6 0.00 0.14 0.14 60 1017.9
20260831190748 67 267 1.7 2.6 0.00 0.14 0.14 60 1017.9
20260831190648 67 253 1.7 2.6 0.00 0.14 0.14 60 1017.8
20260831190559 67 253 1.7 2.6 0.00 0.14 0.14 60 1017.8
20260831190545 67 253 1.7 4.3 0.00 0.14 0.14 60 1017.8
20260831190541 67 253 1.7 4.3 0.00 0.14 0.14 59 1017.6
20260831190247 67 253 1.7 4.3 0.00 0.14 0.14 59 1017.6
20260831190146 67 253 1.7 5.2 0.00 0.14 0.14 60 1017.6
20260831190044 67 253 2.6 5.2 0.00 0.14 0.14 59 1017.6
20260831185941 67 253 2.6 5.2 0.00 0.14 0.14 59 1017.6
20260831185830 67 252 2.6 5.2 0.00 0.14 0.14 58 1017.5
20260831185736 67 253 2.6 5.2 0.00 0.14 0.14 58 1017.5
20260831185636 67 253 2.6 6.1 0.00 0.14 0.14 58 1017.5
20260831185536 67 252 2.6 6.1 0.00 0.14 0.14 58 1017.6
20260831185436 67 250 2.6 6.1 0.00 0.14 0.14 58 1017.5
20260831185343 67 248 3.5 6.1 0.00 0.14 0.14 57 1017.4
20260831185328 67 266 3.5 6.1 0.00 0.14 0.14 57 1017.4
20260831185234 67 267 3.5 6.1 0.00 0.14 0.14 58 1017.5
20260831185132 67 266 3.5 6.1 0.00 0.14 0.14 58 1017.5
20260831185052 68 248 3.5 6.1 0.00 0.14 0.14 58 1017.4
20260831185044 68 269 2.6 6.1 0.00 0.14 0.14 57 1017.4
20260831185040 68 273 3.5 6.1 0.00 0.14 0.14 57 1017.4
20260831184732 68 251 3.5 6.1 0.00 0.14 0.14 57 1017.4
20260831184632 68 252 3.5 5.2 0.00 0.14 0.14 57 1017.3
20260831184532 68 250 2.6 5.2 0.00 0.14 0.14 57 1017.3
20260831184432 68 263 2.6 6.1 0.00 0.14 0.14 57 1017.3
20260831184329 68 270 2.6 6.1 0.00 0.14 0.14 57 1017.2
20260831184231 68 273 2.6 6.1 0.00 0.14 0.14 57 1017.2
20260831184130 68 253 2.6 6.1 0.00 0.14 0.14 56 1017.2
20260831184029 68 261 2.6 6.1 0.00 0.14 0.14 57 1017.2
20260831183929 68 271 3.5 7.0 0.00 0.14 0.14 57 1017.1
20260831183830 68 259 3.5 7.0 0.00 0.14 0.14 56 1017.1
20260831183730 68 265 3.5 7.0 0.00 0.14 0.14 56 1017.0
20260831183630 68 246 3.5 7.0 0.00 0.14 0.14 56 1017.0
20260831183529 68 242 3.5 7.0 0.00 0.14 0.14 56 1017.0
20260831183429 68 265 4.3 7.0 0.00 0.14 0.14 56 1017.0
20260831183329 68 274 4.3 7.0 0.00 0.14 0.14 56 1017.0
20260831183229 68 267 4.3 7.0 0.00 0.14 0.14 56 1016.9
20260831183129 68 276 4.3 7.0 0.00 0.14 0.14 56 1016.9
20260831183029 68 246 4.3 7.8 0.00 0.14 0.14 56 1016.8
20260831182929 68 263 4.3 7.8 0.00 0.14 0.14 56 1016.8
20260831182829 68 269 4.3 7.8 0.00 0.14 0.14 56 1016.8
20260831182729 68 260 4.3 7.8 0.00 0.14 0.14 56 1016.8
20260831182630 68 251 4.3 7.8 0.00 0.14 0.14 56 1016.8
20260831182529 68 288 4.3 7.8 0.00 0.14 0.14 56 1016.7
20260831182429 69 250 4.3 7.8 0.00 0.14 0.14 56 1016.8
20260831182330 69 261 4.3 7.8 0.00 0.14 0.14 55 1016.7
20260831182229 69 231 4.3 7.8 0.00 0.14 0.14 55 1016.7
20260831182129 69 246 4.3 7.8 0.00 0.14 0.14 55 1016.7
20260831182029 69 273 4.3 7.8 0.00 0.14 0.14 55 1016.7
20260831181929 69 278 4.3 7.0 0.00 0.14 0.14 55 1016.7
20260831181829 69 250 3.5 7.0 0.00 0.14 0.14 55 1016.6
20260831181729 69 247 3.5 7.0 0.00 0.14 0.14 55 1016.7
20260831181629 69 256 3.5 7.0 0.00 0.14 0.14 55 1016.6
20260831181528 69 254 3.5 7.0 0.00 0.14 0.14 54 1016.6
20260831181425 69 243 3.5 7.0 0.00 0.14 0.14 54 1016.6
20260831181328 69 244 3.5 7.0 0.00 0.14 0.14 54 1016.6
20260831181324 69 248 3.5 7.0 0.00 0.14 0.14 54 1016.6
20260831181224 69 262 3.5 7.0 0.00 0.14 0.14 54 1016.6
20260831181124 69 254 3.5 7.0 0.00 0.14 0.14 54 1016.6
20260831181024 69 264 4.3 7.0 0.00 0.14 0.14 54 1016.6
20260831180920 69 246 4.3 6.1 0.00 0.14 0.14 54 1016.5
20260831180829 69 263 4.3 7.0 0.00 0.14 0.14 54 1016.5
20260831180818 69 264 4.3 7.0 0.00 0.14 0.14 54 1016.5
20260831180718 70 256 4.3 7.0 0.00 0.14 0.14 54 1016.5
20260831180618 70 272 4.3 7.0 0.00 0.14 0.14 54 1016.5
20260831180555 70 259 4.3 7.8 0.00 0.14 0.14 53 1016.5
20260831180550 70 259 4.3 7.0 0.00 0.14 0.14 54 1016.5
20260831180543 70 259 4.3 7.0 0.00 0.14 0.14 53 1016.5
20260831180314 70 256 4.3 7.8 0.00 0.14 0.14 53 1016.5
20260831180213 70 298 5.2 7.8 0.00 0.14 0.14 53 1016.4
20260831180114 70 248 5.2 7.8 0.00 0.14 0.14 53 1016.5
20260831180053 70 244 5.2 10.4 0.00 0.14 0.14 52 1016.4
20260831180048 70 286 5.2 7.8 0.00 0.14 0.14 52 1016.4
20260831180039 70 257 5.2 7.8 0.00 0.14 0.14 52 1016.4
20260831175810 70 270 5.2 10.4 0.00 0.14 0.14 52 1016.4
20260831175710 70 261 6.1 10.4 0.00 0.14 0.14 52 1016.4
20260831175608 70 273 6.1 10.4 0.00 0.14 0.14 52 1016.4
20260831175506 70 268 6.1 10.4 0.00 0.14 0.14 52 1016.4
20260831175402 70 244 6.1 10.4 0.00 0.14 0.14 52 1016.4
20260831175324 70 245 6.1 10.4 0.00 0.14 0.14 52 1016.4
20260831175302 70 273 6.1 10.4 0.00 0.14 0.14 52 1016.4
20260831175201 70 265 6.1 10.4 0.00 0.14 0.14 52 1016.4
20260831175101 70 244 6.1 10.4 0.00 0.14 0.14 52 1016.3
20260831175003 71 274 6.1 10.4 0.00 0.14 0.14 52 1016.3
20260831174902 71 260 6.1 10.4 0.00 0.14 0.14 51 1016.3
20260831174817 71 265 6.1 10.4 0.00 0.14 0.14 51 1016.3
20260831174802 71 261 6.1 10.4 0.00 0.14 0.14 51 1016.3
20260831174702 71 238 6.1 10.4 0.00 0.14 0.14 51 1016.3
20260831174602 71 257 6.1 10.4 0.00 0.14 0.14 51 1016.2
20260831174536 71 267 6.1 10.4 0.00 0.14 0.14 51 1016.2
20260831174530 71 269 6.1 10.4 0.00 0.14 0.14 51 1016.2
20260831174522 71 268 6.1 10.4 0.00 0.14 0.14 51 1016.1
20260831174302 71 288 6.1 10.4 0.00 0.14 0.14 51 1016.2
20260831174202 71 274 6.1 10.4 0.00 0.14 0.14 51 1016.1
20260831174102 71 273 6.1 11.3 0.00 0.14 0.14 51 1016.1
20260831174002 71 232 7.0 11.3 0.00 0.14 0.14 51 1016.1
20260831173902 71 240 7.0 11.3 0.00 0.14 0.14 50 1016.1
20260831173813 71 242 7.0 11.3 0.00 0.14 0.14 50 1016.0
20260831173801 71 254 7.0 11.3 0.00 0.14 0.14 50 1016.0
20260831173700 71 274 7.0 11.3 0.00 0.14 0.14 51 1016.0
20260831173600 71 280 7.0 11.3 0.00 0.14 0.14 50 1016.1
20260831173501 71 252 7.0 11.3 0.00 0.14 0.14 50 1016.1
20260831173400 71 252 7.0 11.3 0.00 0.14 0.14 49 1016.0
20260831173312 71 265 7.0 11.3 0.00 0.14 0.14 50 1016.0
20260831173300 71 258 7.0 11.3 0.00 0.14 0.14 50 1016.0
20260831173155 71 244 7.0 11.3 0.00 0.14 0.14 50 1016.1
20260831173055 71 261 7.0 11.3 0.00 0.14 0.14 50 1016.0
20260831173035 72 242 6.1 11.3 0.00 0.14 0.14 50 1016.0
20260831173031 72 272 7.0 11.3 0.00 0.14 0.14 50 1016.0
20260831173023 72 265 6.1 11.3 0.00 0.14 0.14 50 1016.0
20260831172754 72 291 6.1 11.3 0.00 0.14 0.14 50 1016.0
20260831172649 72 243 6.1 11.3 0.00 0.14 0.14 50 1016.0
20260831172550 72 284 6.1 11.3 0.00 0.14 0.14 50 1016.0
20260831172535 72 256 6.1 10.4 0.00 0.14 0.14 49 1015.8
20260831172530 72 271 6.1 10.4 0.00 0.14 0.14 50 1016.0
20260831172522 72 236 6.1 10.4 0.00 0.14 0.14 50 1016.0
20260831172247 72 262 6.1 10.4 0.00 0.14 0.14 49 1015.8
20260831172146 72 264 6.1 10.4 0.00 0.14 0.14 48 1015.8
20260831172046 72 265 6.1 10.4 0.00 0.14 0.14 49 1015.8
20260831171946 72 264 6.1 10.4 0.00 0.14 0.14 48 1015.8
20260831171844 72 248 7.0 10.4 0.00 0.14 0.14 48 1015.8
20260831171812 72 242 7.0 11.3 0.00 0.14 0.14 48 1015.8
20260831171741 72 255 7.0 11.3 0.00 0.14 0.14 48 1015.8
20260831171636 72 275 7.0 11.3 0.00 0.14 0.14 48 1015.8
20260831171536 72 246 6.1 11.3 0.00 0.14 0.14 48 1015.8
20260831171440 72 275 6.1 11.3 0.00 0.14 0.14 48 1015.7
20260831171336 73 263 6.1 11.3 0.00 0.14 0.14 48 1015.8
20260831171312 73 237 6.1 11.3 0.00 0.14 0.14 48 1015.8
20260831171236 73 246 6.1 11.3 0.00 0.14 0.14 47 1015.8
20260831171130 73 265 6.1 11.3 0.00 0.14 0.14 47 1015.8
20260831171030 73 311 6.1 11.3 0.00 0.14 0.14 47 1015.7
20260831170929 73 283 6.1 11.3 0.00 0.14 0.14 48 1015.7
20260831170830 73 263 5.2 11.3 0.00 0.14 0.14 47 1015.7
20260831170812 73 259 5.2 11.3 0.00 0.14 0.14 47 1015.7
20260831170730 73 260 5.2 12.2 0.00 0.14 0.14 47 1015.7
20260831170623 73 242 6.1 12.2 0.00 0.14 0.14 47 1015.7
20260831170524 73 275 6.1 12.2 0.00 0.14 0.14 47 1015.7
20260831170423 73 265 6.1 12.2 0.00 0.14 0.14 47 1015.7
20260831170324 73 252 7.0 12.2 0.00 0.14 0.14 47 1015.7
20260831170312 73 234 7.0 12.2 0.00 0.14 0.14 47 1015.7
20260831170223 73 271 7.0 12.2 0.00 0.14 0.14 46 1015.7
20260831170120 73 281 7.0 12.2 0.00 0.14 0.14 46 1015.7
20260831170020 73 269 7.0 12.2 0.00 0.14 0.14 46 1015.6
20260831165920 73 273 7.0 12.2 0.00 0.14 0.14 46 1015.7
20260831165820 73 263 7.0 12.2 0.00 0.14 0.14 46 1015.7
20260831165812 73 233 7.0 12.2 0.00 0.14 0.14 46 1015.7
20260831165717 73 267 7.0 11.3 0.00 0.14 0.14 46 1015.6
20260831165613 73 248 7.0 11.3 0.00 0.14 0.14 45 1015.7
20260831165539 73 254 7.0 13.0 0.00 0.14 0.14 46 1015.6
20260831165533 73 255 7.0 10.4 0.00 0.14 0.14 46 1015.7
20260831165526 73 315 7.0 13.0 0.00 0.14 0.14 46 1015.7
20260831165522 73 247 7.0 13.0 0.00 0.14 0.14 46 1015.6
20260831165212 73 269 7.0 13.0 0.00 0.14 0.14 46 1015.6
20260831165107 73 243 7.0 13.0 0.00 0.14 0.14 46 1015.7
20260831165007 73 262 7.0 13.0 0.00 0.14 0.14 46 1015.6
20260831164908 73 281 7.8 13.0 0.00 0.14 0.14 46 1015.6
20260831164807 73 236 7.8 13.0 0.00 0.14 0.14 45 1015.6
20260831164705 73 283 7.8 13.0 0.00 0.14 0.14 45 1015.5
20260831164604 73 268 7.8 13.0 0.00 0.14 0.14 44 1015.6
20260831164504 73 277 7.8 13.0 0.00 0.14 0.14 44 1015.7
20260831164403 74 257 7.8 13.0 0.00 0.14 0.14 44 1015.6
20260831164308 74 253 7.8 13.0 0.00 0.14 0.14 44 1015.6
20260831164302 73 259 7.8 13.0 0.00 0.14 0.14 44 1015.6
20260831164202 74 238 8.7 13.0 0.00 0.14 0.14 44 1015.6
20260831164102 74 265 8.7 15.6 0.00 0.14 0.14 43 1015.7
20260831164002 74 251 8.7 15.6 0.00 0.14 0.14 43 1015.6
20260831163902 74 256 8.7 15.6 0.00 0.14 0.14 43 1015.6
20260831163808 74 250 8.7 15.6 0.00 0.14 0.14 43 1015.6
20260831163800 74 248 8.7 15.6 0.00 0.14 0.14 43 1015.6
20260831163659 74 267 8.7 15.6 0.00 0.14 0.14 42 1015.6
20260831163559 74 278 9.6 15.6 0.00 0.14 0.14 43 1015.6
20260831163459 74 267 9.6 15.6 0.00 0.14 0.14 42 1015.6
20260831163359 74 260 9.6 15.6 0.00 0.14 0.14 42 1015.6
20260831163307 74 263 9.6 15.6 0.00 0.14 0.14 42 1015.6
20260831163258 74 279 9.6 15.6 0.00 0.14 0.14 42 1015.6
20260831163158 74 293 8.7 15.6 0.00 0.14 0.14 42 1015.7
20260831163058 74 285 8.7 14.8 0.00 0.14 0.14 42 1015.7
20260831162958 74 250 7.8 14.8 0.00 0.14 0.14 42 1015.6
20260831162858 74 219 7.8 14.8 0.00 0.14 0.14 43 1015.6
20260831162808 74 298 7.8 14.8 0.00 0.14 0.14 42 1015.5
20260831162758 74 248 7.8 14.8 0.00 0.14 0.14 42 1015.5
20260831162658 74 271 7.8 14.8 0.00 0.14 0.14 42 1015.6
20260831162557 74 247 7.0 14.8 0.00 0.14 0.14 43 1015.6
20260831162457 74 267 7.0 13.0 0.00 0.14 0.14 44 1015.5
20260831162353 74 243 7.0 13.9 0.00 0.14 0.14 44 1015.5
20260831162308 74 253 7.0 13.9 0.00 0.14 0.14 44 1015.5
20260831162251 74 250 7.0 13.9 0.00 0.14 0.14 44 1015.5
20260831162151 74 249 7.8 13.9 0.00 0.14 0.14 43 1015.5
20260831162052 74 270 7.8 13.9 0.00 0.14 0.14 44 1015.6
20260831161952 74 252 7.8 13.9 0.00 0.14 0.14 43 1015.6
20260831161851 74 257 7.8 13.9 0.00 0.14 0.14 43 1015.6
20260831161807 74 281 8.7 13.9 0.00 0.14 0.14 42 1015.6
20260831161750 74 230 8.7 13.9 0.00 0.14 0.14 42 1015.6
20260831161650 74 283 8.7 13.9 0.00 0.14 0.14 42 1015.6
20260831161550 74 284 8.7 13.9 0.00 0.14 0.14 42 1015.5
20260831161450 74 298 8.7 13.9 0.00 0.14 0.14 42 1015.6
20260831161350 74 269 9.6 17.4 0.00 0.14 0.14 42 1015.6
20260831161304 74 274 9.6 17.4 0.00 0.14 0.14 41 1015.6
20260831161249 74 263 9.6 17.4 0.00 0.14 0.14 41 1015.6
20260831161147 74 262 8.7 17.4 0.00 0.14 0.14 42 1015.6
20260831161049 74 273 9.6 17.4 0.00 0.14 0.14 42 1015.6
20260831160948 74 267 9.6 17.4 0.00 0.14 0.14 42 1015.6
20260831160848 74 239 9.6 17.4 0.00 0.14 0.14 41 1015.6
20260831160803 74 254 9.6 17.4 0.00 0.14 0.14 41 1015.6
20260831160748 74 262 9.6 17.4 0.00 0.14 0.14 41 1015.6
20260831160646 74 273 9.6 17.4 0.00 0.14 0.14 41 1015.6
20260831160546 74 262 9.6 17.4 0.00 0.14 0.14 41 1015.6
20260831160447 74 286 9.6 17.4 0.00 0.14 0.14 41 1015.6
20260831160346 74 288 9.6 15.6 0.00 0.14 0.14 41 1015.6
20260831160304 74 258 10.4 16.5 0.00 0.14 0.14 41 1015.5
20260831160245 74 252 10.4 16.5 0.00 0.14 0.14 41 1015.5
20260831160139 74 263 10.4 16.5 0.00 0.14 0.14 41 1015.5
20260831160040 74 277 10.4 16.5 0.00 0.14 0.14 41 1015.7
20260831155940 74 234 10.4 16.5 0.00 0.14 0.14 41 1015.6
20260831155839 74 258 10.4 16.5 0.00 0.14 0.14 41 1015.5
20260831155803 74 296 10.4 16.5 0.00 0.14 0.14 41 1015.5
20260831155740 74 229 10.4 16.5 0.00 0.14 0.14 41 1015.5
20260831155634 74 259 9.6 16.5 0.00 0.14 0.14 41 1015.5
20260831155533 74 271 9.6 16.5 0.00 0.14 0.14 40 1015.5
20260831155433 74 257 9.6 16.5 0.00 0.14 0.14 39 1015.6
20260831155334 74 280 8.7 14.8 0.00 0.14 0.14 40 1015.4
20260831155306 74 261 8.7 14.8 0.00 0.14 0.14 40 1015.6
20260831155233 74 268 8.7 14.8 0.00 0.14 0.14 41 1015.6
20260831155133 75 259 8.7 13.9 0.00 0.14 0.14 40 1015.5
20260831155033 75 248 8.7 13.9 0.00 0.14 0.14 41 1015.5
20260831154932 75 298 8.7 13.9 0.00 0.14 0.14 40 1015.4
20260831154831 75 265 7.8 13.9 0.00 0.14 0.14 41 1015.5
20260831154804 75 257 7.8 13.9 0.00 0.14 0.14 41 1015.4
20260831154732 74 282 7.8 13.9 0.00 0.14 0.14 41 1015.4
20260831154632 75 263 7.8 13.9 0.00 0.14 0.14 41 1015.3
20260831154532 75 270 7.8 13.0 0.00 0.14 0.14 41 1015.3
20260831154430 75 252 7.8 13.0 0.00 0.14 0.14 41 1015.4
20260831154330 75 253 7.8 13.0 0.00 0.14 0.14 40 1015.4
20260831154303 75 265 7.8 13.0 0.00 0.14 0.14 42 1015.4
20260831154230 75 268 7.8 13.0 0.00 0.14 0.14 42 1015.4
20260831154130 75 248 7.0 13.0 0.00 0.14 0.14 43 1015.4
20260831154029 75 276 7.0 13.0 0.00 0.14 0.14 43 1015.4
20260831153925 75 267 7.0 13.0 0.00 0.14 0.14 44 1015.4
20260831153825 75 299 7.0 13.0 0.00 0.14 0.14 45 1015.4
20260831153804 75 250 7.0 13.0 0.00 0.14 0.14 44 1015.4
20260831153725 75 257 7.0 13.0 0.00 0.14 0.14 44 1015.4
20260831153626 75 263 7.0 13.0 0.00 0.14 0.14 44 1015.4
20260831153535 75 282 7.0 12.2 0.00 0.14 0.14 44 1015.4
20260831153529 75 223 7.0 12.2 0.00 0.14 0.14 45 1015.4
20260831153525 75 243 7.0 12.2 0.00 0.14 0.14 43 1015.4
20260831153517 75 254 7.0 12.2 0.00 0.14 0.14 44 1015.4
20260831153223 75 229 7.0 12.2 0.00 0.14 0.14 44 1015.4
20260831153124 75 253 7.8 13.0 0.00 0.14 0.14 45 1015.4
20260831153024 75 230 7.8 13.0 0.00 0.14 0.14 44 1015.4
20260831152924 75 268 7.8 13.0 0.00 0.14 0.14 44 1015.4
20260831152823 75 210 7.8 13.0 0.00 0.14 0.14 45 1015.4
20260831152802 75 275 8.7 20.9 0.00 0.14 0.14 45 1015.4
20260831152724 75 237 8.7 20.9 0.00 0.14 0.14 44 1015.4
20260831152624 75 225 8.7 20.9 0.00 0.14 0.14 43 1015.5
20260831152524 75 254 8.7 20.9 0.00 0.14 0.14 42 1015.4
20260831152424 75 278 8.7 20.9 0.00 0.14 0.14 42 1015.4
20260831152324 75 246 8.7 20.9 0.00 0.14 0.14 41 1015.5
20260831152301 75 254 8.7 20.9 0.00 0.14 0.14 41 1015.5
20260831152220 75 267 9.6 20.9 0.00 0.14 0.14 41 1015.5
20260831152120 75 273 9.6 20.9 0.00 0.14 0.14 42 1015.5
20260831152019 75 281 9.6 20.9 0.00 0.14 0.14 42 1015.4
20260831151919 75 280 9.6 20.9 0.00 0.14 0.14 42 1015.6
20260831151820 75 245 8.7 20.9 0.00 0.14 0.14 43 1015.5
20260831151801 75 211 8.7 18.2 0.00 0.14 0.14 43 1015.5
20260831151719 75 266 9.6 18.2 0.00 0.14 0.14 42 1015.6
20260831151619 75 255 9.6 18.2 0.00 0.14 0.14 41 1015.5
20260831151519 75 259 9.6 18.2 0.00 0.14 0.14 43 1015.5
20260831151419 75 240 9.6 18.2 0.00 0.14 0.14 42 1015.5
20260831151320 75 257 9.6 18.2 0.00 0.14 0.14 43 1015.6
20260831151302 75 265 9.6 18.2 0.00 0.14 0.14 43 1015.6
20260831151218 75 254 8.7 15.6 0.00 0.14 0.14 43 1015.7
20260831151118 75 274 8.7 14.8 0.00 0.14 0.14 43 1015.7
20260831151011 75 299 8.7 13.9 0.00 0.14 0.14 44 1015.5
20260831150911 75 257 8.7 13.9 0.00 0.14 0.14 43 1015.6
20260831150811 75 257 8.7 15.6 0.00 0.14 0.14 43 1015.6
20260831150801 75 273 8.7 15.6 0.00 0.14 0.14 43 1015.6
20260831150712 75 269 8.7 15.6 0.00 0.14 0.14 43 1015.6
20260831150612 75 244 9.6 15.6 0.00 0.14 0.14 44 1015.5
20260831150512 75 244 9.6 15.6 0.00 0.14 0.14 44 1015.5
20260831150412 75 264 9.6 15.6 0.00 0.14 0.14 42 1015.5
20260831150312 75 259 9.6 15.6 0.00 0.14 0.14 43 1015.5
20260831150301 75 276 9.6 15.6 0.00 0.14 0.14 43 1015.5
20260831150212 75 252 8.7 15.6 0.00 0.14 0.14 42 1015.5
20260831150112 75 259 8.7 15.6 0.00 0.14 0.14 42 1015.5
20260831150029 75 252 8.7 15.6 0.00 0.14 0.14 41 1015.6
20260831150025 75 240 8.7 15.6 0.00 0.14 0.14 42 1015.6
20260831150021 75 263 8.7 15.6 0.00 0.14 0.14 42 1015.6
20260831150012 75 261 8.7 15.6 0.00 0.14 0.14 41 1015.6
20260831145708 75 202 8.7 15.6 0.00 0.14 0.14 41 1015.7
20260831145608 75 247 7.8 15.6 0.00 0.14 0.14 42 1015.8
20260831145507 76 248 7.8 15.6 0.00 0.14 0.14 42 1015.6
20260831145407 76 271 7.0 15.6 0.00 0.14 0.14 43 1015.7
20260831145307 76 277 7.0 15.6 0.00 0.14 0.14 45 1015.6
20260831145300 76 236 7.0 15.6 0.00 0.14 0.14 44 1015.6
20260831145207 76 272 7.0 15.6 0.00 0.14 0.14 44 1015.7
20260831145107 76 252 7.0 15.6 0.00 0.14 0.14 43 1015.7
20260831145008 76 274 7.8 15.6 0.00 0.14 0.14 44 1015.6
20260831144908 76 292 7.0 15.6 0.00 0.14 0.14 44 1015.7
20260831144808 76 261 7.0 13.0 0.00 0.14 0.14 46 1015.7
20260831144801 76 280 7.0 13.0 0.00 0.14 0.14 46 1015.7
20260831144708 76 242 7.0 13.0 0.00 0.14 0.14 45 1015.6
20260831144608 76 263 7.0 13.0 0.00 0.14 0.14 47 1015.6
20260831144530 76 273 7.8 13.0 0.00 0.14 0.14 46 1015.7
20260831144525 76 292 7.0 13.0 0.00 0.14 0.14 47 1015.6
20260831144521 76 279 7.8 13.0 0.00 0.14 0.14 47 1015.6
20260831144513 76 242 7.8 13.0 0.00 0.14 0.14 46 1015.7
20260831144207 76 288 7.8 13.0 0.00 0.14 0.14 46 1015.6
20260831144107 76 229 8.7 13.0 0.00 0.14 0.14 45 1015.6
20260831144008 76 248 8.7 13.0 0.00 0.14 0.14 46 1015.6
20260831143904 76 304 7.8 13.9 0.00 0.14 0.14 45 1015.6
20260831143805 76 288 7.8 13.9 0.00 0.14 0.14 46 1015.6
20260831143801 76 281 7.8 13.9 0.00 0.14 0.14 46 1015.6
20260831143704 76 294 8.7 13.9 0.00 0.14 0.14 46 1015.6
20260831143604 76 273 7.8 13.9 0.00 0.14 0.14 45 1015.7
20260831143503 76 227 8.7 13.9 0.00 0.14 0.14 44 1015.6
20260831143403 76 256 8.7 13.9 0.00 0.14 0.14 43 1015.6
20260831143306 76 231 8.7 13.9 0.00 0.14 0.14 44 1015.6
20260831143301 76 266 8.7 13.9 0.00 0.14 0.14 44 1015.6
20260831143203 77 261 8.7 13.9 0.00 0.14 0.14 44 1015.6
20260831143103 77 254 7.8 13.9 0.00 0.14 0.14 44 1015.7
20260831143003 77 254 7.8 13.9 0.00 0.14 0.14 44 1015.6
20260831142903 77 205 8.7 13.9 0.00 0.14 0.14 45 1015.7
20260831142805 77 280 7.8 13.9 0.00 0.14 0.14 45 1015.7
20260831142800 77 261 7.8 13.9 0.00 0.14 0.14 45 1015.7
20260831142703 77 215 7.8 13.9 0.00 0.14 0.14 45 1015.7
20260831142603 77 266 8.7 13.9 0.00 0.14 0.14 45 1015.7
20260831142503 76 261 7.8 13.9 0.00 0.14 0.14 46 1015.7
20260831142403 76 265 7.8 13.9 0.00 0.14 0.14 46 1015.7
20260831142306 76 336 7.8 13.0 0.00 0.14 0.14 45 1015.7
20260831142301 76 304 7.8 13.0 0.00 0.14 0.14 45 1015.7
20260831142203 76 284 7.8 13.0 0.00 0.14 0.14 46 1015.7
20260831142103 76 275 7.8 13.9 0.00 0.14 0.14 45 1015.7
20260831142003 76 275 7.8 13.9 0.00 0.14 0.14 45 1015.7
20260831141903 76 248 7.8 13.9 0.00 0.14 0.14 46 1015.7
20260831141805 76 218 7.8 13.9 0.00 0.14 0.14 46 1015.7
20260831141801 76 217 7.8 13.9 0.00 0.14 0.14 46 1015.7
20260831141704 76 281 7.8 13.9 0.00 0.14 0.14 46 1015.7
20260831141604 76 251 7.8 13.9 0.00 0.14 0.14 47 1015.7
20260831141502 76 260 7.8 13.9 0.00 0.14 0.14 47 1015.7
20260831141402 76 236 7.8 13.9 0.00 0.14 0.14 46 1015.7
20260831141303 76 296 7.8 13.9 0.00 0.14 0.14 46 1015.6
20260831141201 76 288 7.0 15.6 0.00 0.14 0.14 47 1015.7
20260831141101 76 296 7.8 15.6 0.00 0.14 0.14 48 1015.7
20260831141001 76 321 7.8 15.6 0.00 0.14 0.14 48 1015.7
20260831140901 76 291 7.8 15.6 0.00 0.14 0.14 47 1015.7
20260831140801 76 275 7.8 15.6 0.00 0.14 0.14 48 1015.7
20260831140701 76 334 7.8 15.6 0.00 0.14 0.14 46 1015.7
20260831140601 76 261 7.0 15.6 0.00 0.14 0.14 47 1015.7
20260831140501 76 290 7.8 15.6 0.00 0.14 0.14 46 1015.7
20260831140401 76 277 7.8 15.6 0.00 0.14 0.14 46 1015.7
20260831140301 76 289 7.8 15.6 0.00 0.14 0.14 47 1015.7
20260831140201 76 245 7.8 12.2 0.00 0.14 0.14 47 1015.7
20260831140101 76 266 7.8 13.0 0.00 0.14 0.14 48 1015.7
20260831140001 76 264 7.8 13.0 0.00 0.14 0.14 47 1015.7
20260831135900 76 267 7.8 13.0 0.00 0.14 0.14 47 1015.7
20260831135800 76 259 7.8 13.0 0.00 0.14 0.14 48 1015.7
20260831135700 76 250 8.7 17.4 0.00 0.14 0.14 49 1015.6
20260831135600 76 221 8.7 17.4 0.00 0.14 0.14 47 1015.6
20260831135501 76 271 8.7 17.4 0.00 0.14 0.14 46 1015.6
20260831135401 76 294 8.7 17.4 0.00 0.14 0.14 46 1015.7
20260831135301 76 295 8.7 17.4 0.00 0.14 0.14 47 1015.6
20260831135201 76 294 8.7 17.4 0.00 0.14 0.14 47 1015.6
20260831135101 76 250 9.6 17.4 0.00 0.14 0.14 46 1015.6
20260831135001 76 257 9.6 17.4 0.00 0.14 0.14 46 1015.7
20260831134901 76 253 9.6 17.4 0.00 0.14 0.14 46 1015.6
20260831134801 76 291 9.6 17.4 0.00 0.14 0.14 47 1015.7
20260831134701 76 281 9.6 15.6 0.00 0.14 0.14 47 1015.7
20260831134601 76 242 9.6 15.6 0.00 0.14 0.14 47 1015.6
20260831134501 76 264 9.6 15.6 0.00 0.14 0.14 46 1015.6
20260831134402 76 280 9.6 15.6 0.00 0.14 0.14 47 1015.7
20260831134305 76 304 9.6 15.6 0.00 0.14 0.14 47 1015.8
20260831134202 76 274 9.6 16.5 0.00 0.14 0.14 46 1015.8
20260831134102 76 276 9.6 19.1 0.00 0.14 0.14 47 1015.8
20260831134001 76 261 9.6 19.1 0.00 0.14 0.14 48 1015.7
20260831133901 76 250 9.6 19.1 0.00 0.14 0.14 47 1015.8
20260831133802 76 256 9.6 19.1 0.00 0.14 0.14 47 1015.8
20260831133701 76 290 8.7 19.1 0.00 0.14 0.14 48 1015.8
20260831133601 76 280 8.7 19.1 0.00 0.14 0.14 46 1015.8
20260831133501 76 223 8.7 19.1 0.00 0.14 0.14 46 1015.8
20260831133401 76 277 8.7 19.1 0.00 0.14 0.14 47 1015.8
20260831133301 76 233 8.7 19.1 0.00 0.14 0.14 46 1016.0
20260831133201 76 261 8.7 19.1 0.00 0.14 0.14 46 1016.2
20260831133101 76 269 7.8 14.8 0.00 0.14 0.14 47 1015.8
20260831133021 75 283 8.7 14.8 0.00 0.14 0.14 47 1015.8
20260831133017 75 243 8.7 17.4 0.00 0.14 0.14 46 1015.8
20260831133013 75 245 8.7 17.4 0.00 0.14 0.14 48 1015.8
20260831132701 75 267 9.6 17.4 0.00 0.14 0.14 48 1015.8
20260831132602 75 265 9.6 17.4 0.00 0.14 0.14 47 1015.8
20260831132501 75 262 9.6 17.4 0.00 0.14 0.14 48 1016.0
20260831132401 75 239 10.4 17.4 0.00 0.14 0.14 47 1016.0
20260831132301 75 250 10.4 17.4 0.00 0.14 0.14 47 1016.0
20260831132201 75 208 10.4 17.4 0.00 0.14 0.14 46 1015.8
20260831132101 75 281 10.4 17.4 0.00 0.14 0.14 46 1016.0
20260831132000 75 246 10.4 17.4 0.00 0.14 0.14 46 1016.0
20260831131900 75 284 10.4 16.5 0.00 0.14 0.14 45 1016.0
20260831131800 75 292 9.6 16.5 0.00 0.14 0.14 46 1016.1
20260831131700 75 243 9.6 15.6 0.00 0.14 0.14 46 1016.0
20260831131600 75 269 9.6 15.6 0.00 0.14 0.14 46 1015.8
20260831131501 75 236 9.6 15.6 0.00 0.14 0.14 45 1016.0
20260831131401 75 271 9.6 15.6 0.00 0.14 0.14 45 1016.0
20260831131301 75 268 8.7 15.6 0.00 0.14 0.14 47 1016.0
20260831131201 75 260 8.7 15.6 0.00 0.14 0.14 46 1016.0
20260831131101 75 221 8.7 13.9 0.00 0.14 0.14 47 1015.8
20260831131019 75 231 8.7 17.4 0.00 0.14 0.14 47 1016.0
20260831131015 75 236 9.6 17.4 0.00 0.14 0.14 46 1016.0
20260831131011 75 242 9.6 17.4 0.00 0.14 0.14 46 1016.0
20260831130702 75 254 9.6 17.4 0.00 0.14 0.14 45 1016.0
20260831130601 75 286 9.6 17.4 0.00 0.14 0.14 46 1016.1
20260831130501 75 283 9.6 17.4 0.00 0.14 0.14 46 1016.0
20260831130401 75 265 9.6 17.4 0.00 0.14 0.14 45 1015.8
20260831130301 74 253 9.6 17.4 0.00 0.14 0.14 45 1016.0
20260831130231 74 267 9.6 17.4 0.00 0.14 0.14 46 1016.0
20260831130101 74 254 8.7 17.4 0.00 0.14 0.14 46 1016.1
20260831130021 74 270 8.7 17.4 0.00 0.14 0.14 46 1016.0
20260831130017 74 267 8.7 17.4 0.00 0.14 0.14 45 1016.1
20260831130013 74 257 7.8 17.4 0.00 0.14 0.14 46 1015.8
20260831125701 74 255 7.8 17.4 0.00 0.14 0.14 48 1016.0
20260831125601 74 261 7.8 17.4 0.00 0.14 0.14 46 1016.0
20260831125501 74 257 7.0 17.4 0.00 0.14 0.14 48 1016.0
20260831125400 74 267 7.8 13.0 0.00 0.14 0.14 49 1016.0
20260831125301 74 269 7.0 13.0 0.00 0.14 0.14 48 1016.0
20260831125200 74 316 7.8 13.0 0.00 0.14 0.14 48 1015.8
20260831125102 74 279 7.8 17.4 0.00 0.14 0.14 49 1016.0
20260831125001 74 265 7.8 17.4 0.00 0.14 0.14 48 1016.0
20260831124901 74 276 7.8 17.4 0.00 0.14 0.14 49 1016.0
20260831124800 74 219 7.8 17.4 0.00 0.14 0.14 49 1016.1
20260831124701 75 291 8.7 17.4 0.00 0.14 0.14 49 1016.0
20260831124601 75 239 8.7 17.4 0.00 0.14 0.14 48 1016.0
20260831124501 75 213 8.7 17.4 0.00 0.14 0.14 49 1016.0
20260831124401 75 254 8.7 17.4 0.00 0.14 0.14 49 1016.0
20260831124301 75 236 8.7 17.4 0.00 0.14 0.14 49 1016.0
20260831124202 75 271 8.7 17.4 0.00 0.14 0.14 50 1016.1
20260831124103 74 300 8.7 14.8 0.00 0.14 0.14 51 1016.0
20260831124001 74 240 8.7 14.8 0.00 0.14 0.14 51 1016.1
20260831123901 74 266 8.7 14.8 0.00 0.14 0.14 50 1016.0
20260831123801 74 260 8.7 14.8 0.00 0.14 0.14 48 1016.0
20260831123701 74 271 7.8 14.8 0.00 0.14 0.14 50 1016.1
20260831123601 74 214 7.8 14.8 0.00 0.14 0.14 51 1016.0
20260831123501 74 221 7.8 14.8 0.00 0.14 0.14 52 1016.0
20260831123401 74 241 7.8 19.1 0.00 0.14 0.14 50 1016.0
20260831123301 74 279 7.8 19.1 0.00 0.14 0.14 50 1016.0
20260831123201 74 231 7.8 19.1 0.00 0.14 0.14 51 1016.0
20260831123101 74 278 7.0 19.1 0.00 0.14 0.14 51 1016.1
20260831123001 74 218 7.8 19.1 0.00 0.14 0.14 53 1016.1
20260831122900 74 244 7.8 19.1 0.00 0.14 0.14 54 1016.0
20260831122802 74 293 7.8 19.1 0.00 0.14 0.14 52 1016.0
20260831122701 74 306 8.7 19.1 0.00 0.14 0.14 52 1016.1
20260831122601 74 232 8.7 19.1 0.00 0.14 0.14 52 1016.0
20260831122501 74 295 8.7 19.1 0.00 0.14 0.14 53 1016.0
20260831122401 74 213 9.6 19.1 0.00 0.14 0.14 53 1016.0
20260831122301 74 227 9.6 19.1 0.00 0.14 0.14 53 1016.0
20260831122201 74 252 9.6 19.1 0.00 0.14 0.14 52 1016.1
20260831122100 74 233 9.6 19.1 0.00 0.14 0.14 51 1016.1
20260831122000 74 212 9.6 19.1 0.00 0.14 0.14 52 1016.2
20260831121900 74 252 9.6 19.1 0.00 0.14 0.14 51 1016.1
20260831121800 74 246 9.6 19.1 0.00 0.14 0.14 51 1016.1
20260831121700 74 233 9.6 19.1 0.00 0.14 0.14 50 1016.1
20260831121600 74 242 9.6 19.1 0.00 0.14 0.14 50 1016.3
20260831121501 74 210 9.6 19.1 0.00 0.14 0.14 50 1016.2
20260831121401 74 248 9.6 18.2 0.00 0.14 0.14 49 1016.2
20260831121302 74 271 9.6 18.2 0.00 0.14 0.14 50 1016.2
20260831121201 74 263 9.6 18.2 0.00 0.14 0.14 51 1016.0
20260831121101 74 292 9.6 18.2 0.00 0.14 0.14 50 1016.1
20260831121002 74 269 9.6 18.2 0.00 0.14 0.14 51 1016.1
20260831120901 74 252 9.6 19.1 0.00 0.14 0.14 52 1016.1
20260831120801 74 242 10.4 19.1 0.00 0.14 0.14 52 1016.0
20260831120701 74 178 10.4 19.1 0.00 0.14 0.14 52 1016.0
20260831120601 74 279 10.4 19.1 0.00 0.14 0.14 52 1016.2
20260831120501 74 263 10.4 19.1 0.00 0.14 0.14 53 1016.1
20260831120401 73 268 10.4 19.1 0.00 0.14 0.14 52 1016.1
20260831120301 73 265 9.6 19.1 0.00 0.14 0.14 53 1016.1
20260831120201 73 240 9.6 19.1 0.00 0.14 0.14 51 1016.1
20260831120100 73 242 9.6 19.1 0.00 0.14 0.14 50 1016.1
20260831120000 73 261 8.7 19.1 0.00 0.14 0.14 52 1016.2
20260831115900 73 279 8.7 15.6 0.00 0.14 0.14 51 1016.2
20260831115801 73 209 8.7 15.6 0.00 0.14 0.14 55 1016.3
20260831115700 73 279 8.7 15.6 0.00 0.14 0.14 55 1016.2
20260831115601 73 208 8.7 15.6 0.00 0.14 0.14 54 1016.2
20260831115501 73 254 8.7 15.6 0.00 0.14 0.14 54 1016.2
20260831115401 73 225 8.7 15.6 0.00 0.14 0.14 54 1016.2
20260831115301 73 229 8.7 15.6 0.00 0.14 0.14 56 1016.2
20260831115201 73 238 8.7 15.6 0.00 0.14 0.14 55 1016.2
20260831115101 73 277 8.7 15.6 0.00 0.14 0.14 54 1016.2
20260831115001 73 226 8.7 15.6 0.00 0.14 0.14 55 1016.2
20260831114901 73 228 8.7 15.6 0.00 0.14 0.14 53 1016.3
20260831114800 73 277 8.7 15.6 0.00 0.14 0.14 53 1016.3
20260831114700 73 269 7.8 15.6 0.00 0.14 0.14 55 1016.4
20260831114600 73 287 7.8 14.8 0.00 0.14 0.14 54 1016.3
20260831114522 73 277 7.8 14.8 0.00 0.14 0.14 56 1016.3
20260831114518 73 268 7.8 13.0 0.00 0.14 0.14 56 1016.3
20260831114514 73 283 7.8 13.0 0.00 0.14 0.14 58 1016.3
20260831114202 73 255 7.8 13.0 0.00 0.14 0.14 57 1016.3
20260831114101 73 292 7.8 16.5 0.00 0.14 0.14 57 1016.3
20260831114001 73 290 8.7 16.5 0.00 0.14 0.14 59 1016.3
20260831113901 73 296 8.7 16.5 0.00 0.14 0.14 58 1016.3
20260831113801 73 288 8.7 16.5 0.00 0.14 0.14 57 1016.3
20260831113701 73 257 9.6 16.5 0.00 0.14 0.14 58 1016.4
20260831113601 73 235 9.6 20.0 0.00 0.14 0.14 57 1016.4
20260831113501 73 235 10.4 20.0 0.00 0.14 0.14 57 1016.4
20260831113401 73 242 10.4 20.0 0.00 0.14 0.14 58 1016.4
20260831113301 73 252 10.4 20.0 0.00 0.14 0.14 57 1016.4
20260831113205 73 238 11.3 20.0 0.00 0.14 0.14 59 1016.5
20260831113101 72 231 11.3 20.0 0.00 0.14 0.14 58 1016.4
20260831113001 73 275 11.3 20.0 0.00 0.14 0.14 57 1016.4
20260831112901 73 250 11.3 20.0 0.00 0.14 0.14 57 1016.4
20260831112800 73 269 10.4 20.0 0.00 0.14 0.14 55 1016.4
20260831112703 73 278 10.4 20.0 0.00 0.14 0.14 55 1016.4
20260831112601 73 285 9.6 19.1 0.00 0.14 0.14 57 1016.4
20260831112500 73 265 9.6 19.1 0.00 0.14 0.14 56 1016.4
20260831112400 73 225 9.6 19.1 0.00 0.14 0.14 56 1016.4
20260831112300 73 252 8.7 19.1 0.00 0.14 0.14 57 1016.5
20260831112201 73 246 8.7 19.1 0.00 0.14 0.14 60 1016.4
20260831112100 73 207 7.8 17.4 0.00 0.14 0.14 59 1016.4
20260831112000 73 253 7.8 17.4 0.00 0.14 0.14 60 1016.3
20260831111900 73 248 8.7 17.4 0.00 0.14 0.14 60 1016.4
20260831111801 73 236 8.7 17.4 0.00 0.14 0.14 60 1016.3
20260831111701 73 244 7.8 17.4 0.00 0.14 0.14 59 1016.3
20260831111600 73 262 7.8 17.4 0.00 0.14 0.14 60 1016.4
20260831111501 73 257 7.8 17.4 0.00 0.14 0.14 59 1016.4
20260831111401 73 222 7.8 15.6 0.00 0.14 0.14 62 1016.4
20260831111302 72 292 7.8 15.6 0.00 0.14 0.14 62 1016.4
20260831111201 72 229 7.8 15.6 0.00 0.14 0.14 62 1016.3
20260831111101 72 200 7.8 15.6 0.00 0.14 0.14 62 1016.4
20260831111001 72 219 7.8 15.6 0.00 0.14 0.14 63 1016.4
20260831110901 72 279 7.0 15.6 0.00 0.14 0.14 65 1016.4
20260831110801 72 238 7.0 13.0 0.00 0.14 0.14 64 1016.4
20260831110701 72 278 7.0 13.0 0.00 0.14 0.14 63 1016.3
20260831110601 72 248 7.0 13.0 0.00 0.14 0.14 65 1016.4
20260831110501 72 255 7.0 13.0 0.00 0.14 0.14 65 1016.4
20260831110401 72 260 7.0 14.8 0.00 0.14 0.14 64 1016.3
20260831110301 72 252 7.0 14.8 0.00 0.14 0.14 63 1016.3
20260831110253 72 205 7.0 14.8 0.00 0.14 0.14 65 1016.3
20260831110245 72 213 7.0 14.8 0.00 0.14 0.14 64 1016.4
20260831110238 72 247 7.0 14.8 0.00 0.14 0.14 64 1016.3
20260831110020 72 232 7.0 14.8 0.00 0.14 0.14 65 1016.4
20260831110016 72 215 7.0 14.8 0.00 0.14 0.14 64 1016.3
20260831110012 72 205 7.0 14.8 0.00 0.14 0.14 65 1016.3
20260831105701 72 309 7.8 14.8 0.00 0.14 0.14 65 1016.3
20260831105600 72 242 7.8 14.8 0.00 0.14 0.14 65 1016.4
20260831105519 72 263 7.8 14.8 0.00 0.14 0.14 65 1016.3
20260831105515 72 234 7.8 13.0 0.00 0.14 0.14 65 1016.3
20260831105511 72 200 7.8 13.0 0.00 0.14 0.14 65 1016.3
20260831105251 71 187 7.8 14.8 0.00 0.14 0.14 65 1016.3
20260831105246 71 236 7.8 13.0 0.00 0.14 0.14 65 1016.4
20260831105238 71 269 7.8 13.0 0.00 0.14 0.14 65 1016.4
20260831105020 71 229 7.8 14.8 0.00 0.14 0.14 65 1016.3
20260831105016 71 238 7.8 14.8 0.00 0.14 0.14 65 1016.4
20260831105012 71 187 7.8 14.8 0.00 0.14 0.14 65 1016.3
20260831104749 71 227 7.8 14.8 0.00 0.14 0.14 65 1016.3
20260831104744 71 232 7.8 14.8 0.00 0.14 0.14 64 1016.3
20260831104736 71 226 7.0 14.8 0.00 0.14 0.14 64 1016.3
20260831104519 71 194 7.0 14.8 0.00 0.14 0.14 64 1016.3
20260831104515 71 236 7.8 14.8 0.00 0.14 0.14 65 1016.3
20260831104511 71 227 7.8 14.8 0.00 0.14 0.14 65 1016.3
20260831104201 71 273 7.8 14.8 0.00 0.14 0.14 65 1016.4
20260831104101 71 273 7.8 14.8 0.00 0.14 0.14 65 1016.3
20260831104001 71 251 7.8 13.9 0.00 0.14 0.14 66 1016.4
20260831103901 71 283 7.8 14.8 0.00 0.14 0.14 65 1016.4
20260831103801 71 257 8.7 14.8 0.00 0.14 0.14 66 1016.3
20260831103701 71 247 8.7 14.8 0.00 0.14 0.14 65 1016.4
20260831103601 71 256 8.7 14.8 0.00 0.14 0.14 64 1016.4
20260831103521 71 229 9.6 14.8 0.00 0.14 0.14 65 1016.5
20260831103517 71 230 8.7 15.6 0.00 0.14 0.14 66 1016.5
20260831103513 71 246 8.7 15.6 0.00 0.14 0.14 65 1016.4
20260831103201 71 266 9.6 16.5 0.00 0.14 0.14 65 1016.5
20260831103101 71 256 9.6 16.5 0.00 0.14 0.14 64 1016.5
20260831103020 71 261 8.7 16.5 0.00 0.14 0.14 65 1016.6
20260831103016 71 207 8.7 16.5 0.00 0.14 0.14 64 1016.6
20260831103012 71 250 8.7 16.5 0.00 0.14 0.14 64 1016.5
20260831102700 71 212 8.7 16.5 0.00 0.14 0.14 65 1016.5
20260831102601 71 235 8.7 16.5 0.00 0.14 0.14 65 1016.5
20260831102500 71 225 8.7 16.5 0.00 0.14 0.14 65 1016.5
20260831102400 70 202 8.7 17.4 0.00 0.14 0.14 65 1016.5
20260831102301 70 212 8.7 17.4 0.00 0.14 0.14 66 1016.4
20260831102201 70 230 7.8 17.4 0.00 0.14 0.14 66 1016.5
20260831102101 70 270 7.8 17.4 0.00 0.14 0.14 66 1016.5
20260831102000 70 269 7.8 17.4 0.00 0.14 0.14 65 1016.4
20260831101900 70 276 8.7 17.4 0.00 0.14 0.14 67 1016.5
20260831101801 70 264 8.7 17.4 0.00 0.14 0.14 67 1016.4
20260831101701 70 288 8.7 17.4 0.00 0.14 0.14 66 1016.5
20260831101601 70 275 8.7 17.4 0.00 0.14 0.14 67 1016.5
20260831101500 70 219 9.6 17.4 0.00 0.14 0.14 66 1016.5
20260831101400 70 242 9.6 17.4 0.00 0.14 0.14 66 1016.6
20260831101301 70 276 9.6 18.2 0.00 0.14 0.14 66 1016.5
20260831101201 70 250 9.6 18.2 0.00 0.14 0.14 67 1016.6
20260831101101 70 252 10.4 18.2 0.00 0.14 0.14 67 1016.6
20260831101001 70 261 10.4 18.2 0.00 0.14 0.14 67 1016.6
20260831100901 70 271 10.4 18.2 0.00 0.14 0.14 66 1016.6
20260831100801 69 208 11.3 18.2 0.00 0.14 0.14 66 1016.6
20260831100701 69 228 11.3 18.2 0.00 0.14 0.14 66 1016.6
20260831100605 70 246 11.3 18.2 0.00 0.14 0.14 65 1016.7
20260831100501 70 265 10.4 18.2 0.00 0.14 0.14 66 1016.8
20260831100401 70 267 10.4 18.2 0.00 0.14 0.14 67 1016.5
20260831100302 70 278 11.3 17.4 0.00 0.14 0.14 66 1016.6
20260831100201 70 292 11.3 17.4 0.00 0.14 0.14 66 1016.6
20260831100103 70 274 11.3 17.4 0.00 0.14 0.14 65 1016.8
20260831100000 70 279 10.4 17.4 0.00 0.14 0.14 66 1016.6
20260831095901 70 275 10.4 17.4 0.00 0.14 0.14 66 1016.6
20260831095801 70 259 10.4 17.4 0.00 0.14 0.14 66 1017.0
20260831095701 70 256 10.4 17.4 0.00 0.14 0.14 66 1016.6
20260831095601 70 268 9.6 17.4 0.00 0.14 0.14 66 1016.6
20260831095501 70 284 9.6 17.4 0.00 0.14 0.14 66 1016.8
20260831095401 70 286 8.7 17.4 0.00 0.14 0.14 66 1016.8
20260831095300 70 265 8.7 17.4 0.00 0.14 0.14 66 1016.8
20260831095200 70 259 7.8 17.4 0.00 0.14 0.14 67 1016.7
20260831095100 70 248 7.0 14.8 0.00 0.14 0.14 67 1016.6
20260831095000 70 238 7.0 13.9 0.00 0.14 0.14 67 1016.6
20260831094900 70 271 7.0 13.9 0.00 0.14 0.14 67 1016.6
20260831094801 70 271 7.0 13.9 0.00 0.14 0.14 67 1016.7
20260831094701 70 297 7.0 13.9 0.00 0.14 0.14 68 1016.6
20260831094601 70 282 6.1 13.0 0.00 0.14 0.14 69 1016.6
20260831094501 70 298 7.0 12.2 0.00 0.14 0.14 69 1016.5
20260831094401 70 265 7.0 12.2 0.00 0.14 0.14 69 1016.5
20260831094301 70 246 7.0 12.2 0.00 0.14 0.14 70 1016.5
20260831094201 70 221 7.8 13.0 0.00 0.14 0.14 69 1016.5
20260831094102 70 286 7.8 13.0 0.00 0.14 0.14 69 1016.6
20260831094001 70 277 7.8 13.0 0.00 0.14 0.14 70 1016.5
20260831093901 70 281 7.8 13.0 0.00 0.14 0.14 70 1016.5
20260831093800 70 319 8.7 13.9 0.00 0.14 0.14 69 1016.5
20260831093700 70 272 8.7 13.9 0.00 0.14 0.14 70 1016.5
20260831093601 69 254 8.7 13.9 0.00 0.14 0.14 69 1016.5
20260831093521 69 264 8.7 13.9 0.00 0.14 0.14 69 1016.6
20260831093517 69 271 8.7 13.9 0.00 0.14 0.14 69 1016.6
20260831093513 69 262 8.7 13.9 0.00 0.14 0.14 70 1016.6
20260831093201 69 271 9.6 13.9 0.00 0.14 0.14 70 1016.7
20260831093101 69 238 9.6 13.9 0.00 0.14 0.14 71 1016.5
20260831093001 69 286 9.6 14.8 0.00 0.14 0.14 70 1016.7
20260831092901 69 264 9.6 14.8 0.00 0.14 0.14 71 1016.7
20260831092801 69 298 9.6 14.8 0.00 0.14 0.14 70 1016.6
20260831092701 69 263 9.6 14.8 0.00 0.14 0.14 71 1016.7
20260831092601 69 273 9.6 14.8 0.00 0.14 0.14 72 1016.6
20260831092501 69 259 8.7 14.8 0.00 0.14 0.14 72 1016.5
20260831092400 69 244 8.7 14.8 0.00 0.14 0.14 72 1016.6
20260831092300 69 246 8.7 14.8 0.00 0.14 0.14 72 1016.6
20260831092200 69 304 7.8 14.8 0.00 0.14 0.14 71 1016.7
20260831092100 69 236 7.8 14.8 0.00 0.14 0.14 72 1016.5
20260831092020 68 256 7.8 14.8 0.00 0.14 0.14 72 1016.6
20260831092016 68 277 7.0 14.8 0.00 0.14 0.14 72 1016.6
20260831092012 68 266 7.0 14.8 0.00 0.14 0.14 72 1016.6
20260831091701 68 248 7.0 14.8 0.00 0.14 0.14 73 1016.7
20260831091602 68 273 6.1 14.8 0.00 0.14 0.14 73 1016.5
20260831091502 68 238 6.1 14.8 0.00 0.14 0.14 73 1016.5
20260831091401 68 268 6.1 14.8 0.00 0.14 0.14 72 1016.5
20260831091302 68 277 6.1 14.8 0.00 0.14 0.14 74 1016.6
20260831091201 68 217 6.1 14.8 0.00 0.14 0.14 75 1016.6
20260831091100 68 239 6.1 13.9 0.00 0.14 0.14 76 1016.5
20260831091001 67 267 6.1 11.3 0.00 0.14 0.14 76 1016.6
20260831090901 67 302 6.1 11.3 0.00 0.14 0.14 75 1016.6
20260831090800 67 265 6.1 11.3 0.00 0.14 0.14 76 1016.5
20260831090700 67 293 6.1 11.3 0.00 0.14 0.14 75 1016.5
20260831090601 67 254 6.1 11.3 0.00 0.14 0.14 75 1016.6
20260831090501 67 275 6.1 11.3 0.00 0.14 0.14 75 1016.5
20260831090401 67 228 6.1 11.3 0.00 0.14 0.14 75 1016.6
20260831090301 67 250 6.1 11.3 0.00 0.14 0.14 75 1016.7
20260831090201 67 254 6.1 11.3 0.00 0.14 0.14 75 1016.6
20260831090101 67 265 6.1 9.6 0.00 0.14 0.14 75 1016.6
20260831090001 67 273 6.1 10.4 0.00 0.14 0.14 76 1016.6
20260831085901 67 245 6.1 10.4 0.00 0.14 0.14 76 1016.6
20260831085800 67 280 6.1 10.4 0.00 0.14 0.14 76 1016.6
20260831085700 67 256 7.0 11.3 0.00 0.14 0.14 76 1016.5
20260831085600 67 265 7.0 11.3 0.00 0.14 0.14 75 1016.6
20260831085500 67 256 7.0 12.2 0.00 0.14 0.14 76 1016.6
20260831085401 67 274 7.0 12.2 0.00 0.14 0.14 76 1016.5
20260831085301 67 277 7.0 12.2 0.00 0.14 0.14 75 1016.5
20260831085248 67 288 7.0 12.2 0.00 0.14 0.14 76 1016.5
20260831085245 67 257 7.8 12.2 0.00 0.14 0.14 75 1016.4
20260831085240 67 232 7.8 12.2 0.00 0.14 0.14 75 1016.5
20260831085020 67 240 7.0 12.2 0.00 0.14 0.14 76 1016.4
20260831085015 67 266 7.0 12.2 0.00 0.14 0.14 76 1016.6
20260831085011 67 288 7.0 12.2 0.00 0.14 0.14 76 1016.5
20260831084701 67 251 7.0 12.2 0.00 0.14 0.14 76 1016.5
20260831084601 67 269 6.1 12.2 0.00 0.14 0.14 77 1016.4
20260831084501 67 258 6.1 10.4 0.00 0.14 0.14 77 1016.5
20260831084401 67 267 6.1 10.4 0.00 0.14 0.14 77 1016.5
20260831084300 67 290 6.1 10.4 0.00 0.14 0.14 76 1016.5
20260831084202 67 233 5.2 10.4 0.00 0.14 0.14 77 1016.5
20260831084100 67 263 5.2 9.6 0.00 0.14 0.14 78 1016.4
20260831084001 67 256 5.2 9.6 0.00 0.14 0.14 78 1016.4
20260831083901 67 281 5.2 9.6 0.00 0.14 0.14 78 1016.4
20260831083801 67 263 6.1 9.6 0.00 0.14 0.14 78 1016.5
20260831083700 67 242 6.1 10.4 0.00 0.14 0.14 78 1016.4
20260831083600 67 258 6.1 10.4 0.00 0.14 0.14 78 1016.4
20260831083501 67 282 6.1 10.4 0.00 0.14 0.14 77 1016.4
20260831083400 67 236 6.1 10.4 0.00 0.14 0.14 78 1016.4
20260831083300 67 254 6.1 10.4 0.00 0.14 0.14 78 1016.4
20260831083201 67 251 6.1 10.4 0.00 0.14 0.14 78 1016.4
20260831083101 66 265 6.1 10.4 0.00 0.14 0.14 78 1016.3
20260831083000 67 281 6.1 10.4 0.00 0.14 0.14 78 1016.4
20260831082900 67 253 6.1 10.4 0.00 0.14 0.14 78 1016.4
20260831082801 67 248 6.1 10.4 0.00 0.14 0.14 78 1016.3
20260831082701 67 260 6.1 10.4 0.00 0.14 0.14 78 1016.4
20260831082601 66 263 6.1 10.4 0.00 0.14 0.14 80 1016.3
20260831082500 66 257 6.1 10.4 0.00 0.14 0.14 80 1016.2
20260831082401 66 253 6.1 10.4 0.00 0.14 0.14 79 1016.2
20260831082301 66 298 6.1 10.4 0.00 0.14 0.14 79 1016.2
20260831082200 66 246 6.1 10.4 0.00 0.14 0.14 79 1016.2
20260831082100 66 254 6.1 10.4 0.00 0.14 0.14 78 1016.2
20260831082001 66 271 6.1 10.4 0.00 0.14 0.14 80 1016.4
20260831081900 66 277 6.1 10.4 0.00 0.14 0.14 81 1016.3
20260831081801 66 292 6.1 10.4 0.00 0.14 0.14 81 1016.2
20260831081701 66 293 6.1 10.4 0.00 0.14 0.14 81 1016.2
20260831081601 66 259 7.0 10.4 0.00 0.14 0.14 81 1016.2
20260831081501 66 221 7.0 12.2 0.00 0.14 0.14 81 1016.2
20260831081401 66 271 7.0 12.2 0.00 0.14 0.14 82 1016.2
20260831081301 66 255 6.1 12.2 0.00 0.14 0.14 82 1016.4
20260831081200 66 254 6.1 12.2 0.00 0.14 0.14 82 1016.2
20260831081100 66 260 5.2 12.2 0.00 0.14 0.14 81 1016.3
20260831081000 66 221 5.2 12.2 0.00 0.14 0.14 82 1016.3
20260831080900 66 232 5.2 12.2 0.00 0.14 0.14 82 1016.3
20260831080800 65 242 5.2 12.2 0.00 0.14 0.14 83 1016.2
20260831080700 65 249 5.2 12.2 0.00 0.14 0.14 83 1016.2
20260831080601 65 212 4.3 12.2 0.00 0.14 0.14 84 1016.1
20260831080501 65 264 4.3 9.6 0.00 0.14 0.14 84 1016.1
20260831080401 65 237 4.3 9.6 0.00 0.14 0.14 84 1016.2
20260831080302 65 248 5.2 9.6 0.00 0.14 0.14 84 1016.1
20260831080200 65 262 5.2 9.6 0.00 0.14 0.14 83 1016.1
20260831080021 65 219 5.2 9.6 0.00 0.14 0.14 83 1016.2
20260831080017 65 252 5.2 9.6 0.00 0.14 0.14 83 1016.2
20260831080013 65 232 5.2 9.6 0.00 0.14 0.14 83 1016.2
20260831075701 65 264 5.2 9.6 0.00 0.14 0.14 83 1016.2
20260831075601 65 231 5.2 9.6 0.00 0.14 0.14 83 1016.1
20260831075501 65 270 5.2 9.6 0.00 0.14 0.14 83 1016.1
20260831075400 65 233 5.2 8.7 0.00 0.14 0.14 83 1016.1
20260831075300 65 268 4.3 8.7 0.00 0.14 0.14 84 1016.1
20260831075200 65 236 4.3 8.7 0.00 0.14 0.14 84 1016.1
20260831075100 65 231 5.2 8.7 0.00 0.14 0.14 84 1016.1
20260831075000 65 238 5.2 9.6 0.00 0.14 0.14 84 1016.1
20260831074900 65 261 4.3 9.6 0.00 0.14 0.14 84 1016.1
20260831074801 65 238 4.3 9.6 0.00 0.14 0.14 84 1016.1
20260831074701 65 300 5.2 9.6 0.00 0.14 0.14 83 1016.1
20260831074601 65 275 5.2 9.6 0.00 0.14 0.14 83 1016.1
20260831074501 65 285 5.2 9.6 0.00 0.14 0.14 83 1016.1
20260831074401 65 317 5.2 9.6 0.00 0.14 0.14 83 1016.1
20260831074301 65 269 6.1 11.3 0.00 0.14 0.14 83 1016.0
20260831074202 65 252 6.1 11.3 0.00 0.14 0.14 84 1016.0
20260831074101 65 265 6.1 11.3 0.00 0.14 0.14 83 1016.1
20260831074023 65 252 6.1 12.2 0.00 0.14 0.14 84 1016.0
20260831074015 65 283 6.1 12.2 0.00 0.14 0.14 84 1016.0
20260831074011 65 263 6.1 12.2 0.00 0.14 0.14 85 1016.0
20260831073700 65 231 6.1 12.2 0.00 0.14 0.14 85 1016.1
20260831073600 65 244 6.1 12.2 0.00 0.14 0.14 84 1016.1
20260831073502 65 264 7.0 12.2 0.00 0.14 0.14 84 1016.0
20260831073400 65 241 7.0 12.2 0.00 0.14 0.14 84 1016.1
20260831073301 65 265 7.0 12.2 0.00 0.14 0.14 84 1016.1
20260831073201 65 281 7.0 17.4 0.00 0.14 0.14 84 1016.0
20260831073101 65 283 7.0 17.4 0.00 0.14 0.14 85 1016.1
20260831073001 65 267 7.0 17.4 0.00 0.14 0.14 85 1015.8
20260831072901 65 229 7.0 17.4 0.00 0.14 0.14 85 1015.8
20260831072801 65 249 7.0 17.4 0.00 0.14 0.14 85 1015.8
20260831072700 65 290 7.0 17.4 0.00 0.14 0.14 84 1016.0
20260831072600 65 255 7.0 17.4 0.00 0.14 0.14 85 1016.0
20260831072500 65 260 7.0 17.4 0.00 0.14 0.14 85 1016.0
20260831072401 65 263 7.0 17.4 0.00 0.14 0.14 85 1016.0
20260831072301 65 279 6.1 17.4 0.00 0.14 0.14 85 1016.0
20260831072201 65 236 6.1 11.3 0.00 0.14 0.14 87 1015.8
20260831072100 65 241 6.1 11.3 0.00 0.14 0.14 87 1015.8
20260831072000 64 254 6.1 11.3 0.00 0.14 0.14 87 1015.8
20260831071901 64 252 6.1 11.3 0.00 0.14 0.14 87 1015.8
20260831071800 64 281 6.1 12.2 0.00 0.14 0.14 87 1015.8
20260831071701 64 269 7.0 12.2 0.00 0.14 0.14 86 1016.0
20260831071601 64 238 7.0 12.2 0.00 0.14 0.14 87 1016.0
20260831071500 64 257 6.1 12.2 0.00 0.14 0.14 87 1015.8
20260831071401 64 255 6.1 12.2 0.00 0.14 0.14 87 1016.0
20260831071301 64 250 7.0 12.2 0.00 0.14 0.14 87 1015.8
20260831071201 64 253 7.0 12.2 0.00 0.14 0.14 87 1015.8
20260831071101 64 234 7.0 12.2 0.00 0.14 0.14 87 1016.0
20260831071001 64 221 7.0 12.2 0.00 0.14 0.14 86 1015.7
20260831070901 64 259 7.0 12.2 0.00 0.14 0.14 86 1016.0
20260831070801 64 271 7.0 13.9 0.00 0.14 0.14 86 1015.7
20260831070700 64 260 7.0 13.9 0.00 0.14 0.14 87 1015.8
20260831070600 64 198 7.0 13.9 0.00 0.14 0.14 87 1015.7
20260831070500 64 281 7.0 13.9 0.00 0.14 0.14 87 1015.7
20260831070401 64 244 7.0 13.9 0.00 0.14 0.14 87 1015.7
20260831070300 64 277 6.1 13.9 0.00 0.14 0.14 87 1015.7
20260831070200 64 265 6.1 13.9 0.00 0.14 0.14 87 1015.7
20260831070100 64 205 7.0 13.9 0.00 0.14 0.14 87 1015.6
20260831070000 64 241 6.1 13.9 0.00 0.14 0.14 87 1015.7
20260831065900 64 217 6.1 13.9 0.00 0.14 0.14 87 1015.7
20260831065801 64 247 6.1 11.3 0.00 0.14 0.14 88 1015.6
20260831065701 64 228 6.1 11.3 0.00 0.14 0.14 88 1015.6
20260831065559 64 235 6.1 11.3 0.00 0.14 0.14 88 1015.6
20260831065459 63 246 6.1 11.3 0.00 0.14 0.14 88 1015.5
20260831065359 64 250 6.1 11.3 0.00 0.14 0.14 88 1015.6
20260831065306 63 252 6.1 11.3 0.00 0.14 0.14 88 1015.6
20260831065258 63 252 6.1 11.3 0.00 0.14 0.14 88 1015.6
20260831065158 63 222 6.1 11.3 0.00 0.14 0.14 89 1015.6
20260831065058 63 217 5.2 11.3 0.00 0.14 0.14 89 1015.7
20260831064958 63 271 5.2 11.3 0.00 0.14 0.14 89 1015.6
20260831064858 63 264 5.2 11.3 0.00 0.14 0.14 89 1015.6
20260831064802 63 279 5.2 11.3 0.00 0.14 0.14 89 1015.6
20260831064758 63 262 5.2 11.3 0.00 0.14 0.14 89 1015.6
20260831064658 63 248 6.1 11.3 0.00 0.14 0.14 89 1015.6
20260831064559 63 243 6.1 11.3 0.00 0.14 0.14 89 1015.5
20260831064458 63 284 6.1 11.3 0.00 0.14 0.14 89 1015.5
20260831064358 63 264 6.1 11.3 0.00 0.14 0.14 89 1015.5
20260831064303 63 273 6.1 9.6 0.00 0.14 0.14 89 1015.5
20260831064259 63 275 6.1 9.6 0.00 0.14 0.14 89 1015.5
20260831064159 63 284 6.1 11.3 0.00 0.14 0.14 89 1015.4
20260831064059 63 215 6.1 11.3 0.00 0.14 0.14 89 1015.4
20260831063959 63 219 6.1 11.3 0.00 0.14 0.14 89 1015.5
20260831063859 63 268 6.1 11.3 0.00 0.14 0.14 89 1015.4
20260831063803 63 231 7.0 11.3 0.00 0.14 0.14 89 1015.5
20260831063758 63 231 7.0 11.3 0.00 0.14 0.14 89 1015.5
20260831063654 63 242 6.1 11.3 0.00 0.14 0.14 89 1015.4
20260831063554 62 236 6.1 11.3 0.00 0.14 0.14 89 1015.5
20260831063454 62 228 6.1 11.3 0.00 0.14 0.14 89 1015.5
20260831063354 62 209 7.0 11.3 0.00 0.14 0.14 89 1015.4
20260831063300 62 255 7.0 11.3 0.00 0.14 0.14 89 1015.4
20260831063254 62 277 7.0 11.3 0.00 0.14 0.14 89 1015.4
20260831063154 62 220 7.0 9.6 0.00 0.14 0.14 90 1015.4
20260831063054 62 271 7.0 10.4 0.00 0.14 0.14 90 1015.5
20260831062955 62 247 7.0 10.4 0.00 0.14 0.14 90 1015.5
20260831062854 62 284 7.0 10.4 0.00 0.14 0.14 90 1015.4
20260831062800 62 233 7.0 11.3 0.00 0.14 0.14 90 1015.4
20260831062755 62 259 7.0 11.3 0.00 0.14 0.14 90 1015.4
20260831062655 62 261 7.0 11.3 0.00 0.14 0.14 90 1015.4
20260831062555 62 289 7.0 11.3 0.00 0.14 0.14 90 1015.4
20260831062454 62 228 7.0 11.3 0.00 0.14 0.14 90 1015.4
20260831062355 62 267 7.0 11.3 0.00 0.14 0.14 90 1015.4
20260831062301 62 244 7.0 11.3 0.00 0.14 0.14 90 1015.4
20260831062254 62 286 7.0 11.3 0.00 0.14 0.14 90 1015.4
20260831062154 62 277 6.1 11.3 0.00 0.14 0.14 90 1015.3
20260831062054 62 295 6.1 11.3 0.00 0.14 0.14 90 1015.4
20260831062025 62 261 6.1 11.3 0.00 0.14 0.14 91 1015.4
20260831062020 62 265 6.1 11.3 0.00 0.14 0.14 90 1015.4
20260831062012 62 274 6.1 11.3 0.00 0.14 0.14 91 1015.4
20260831061748 62 252 6.1 11.3 0.00 0.14 0.14 91 1015.4
20260831061648 62 299 6.1 11.3 0.00 0.14 0.14 91 1015.3
20260831061548 62 279 5.2 11.3 0.00 0.14 0.14 91 1015.4
20260831061525 62 250 5.2 9.6 0.00 0.14 0.14 91 1015.4
20260831061520 62 271 5.2 11.3 0.00 0.14 0.14 91 1015.4
20260831061511 62 244 5.2 11.3 0.00 0.14 0.14 91 1015.5
20260831061242 62 285 5.2 9.6 0.00 0.14 0.14 91 1015.4
20260831061140 62 248 5.2 9.6 0.00 0.14 0.14 91 1015.4
20260831061040 62 273 5.2 7.8 0.00 0.14 0.14 91 1015.3
20260831060940 62 254 5.2 7.8 0.00 0.14 0.14 91 1015.4
20260831060839 61 278 5.2 7.8 0.00 0.14 0.14 91 1015.3
20260831060800 61 271 5.2 7.8 0.00 0.14 0.14 91 1015.3
20260831060734 61 248 5.2 7.8 0.00 0.14 0.14 91 1015.3
20260831060635 61 273 4.3 7.8 0.00 0.14 0.14 91 1015.3
20260831060535 61 260 4.3 7.8 0.00 0.14 0.14 91 1015.3
20260831060435 61 248 4.3 7.8 0.00 0.14 0.14 91 1015.3
20260831060334 61 271 4.3 7.8 0.00 0.14 0.14 91 1015.3
20260831060301 61 244 4.3 7.8 0.00 0.14 0.14 91 1015.3
20260831060234 61 240 4.3 7.8 0.00 0.14 0.14 91 1015.3
20260831060132 61 243 4.3 7.8 0.00 0.14 0.14 91 1015.3
20260831060032 61 227 4.3 7.8 0.00 0.14 0.14 91 1015.3
20260831055930 61 248 4.3 7.8 0.00 0.14 0.14 91 1015.3
20260831055831 61 232 3.5 7.0 0.00 0.14 0.14 91 1015.3
20260831055800 61 215 3.5 7.0 0.00 0.14 0.14 92 1015.3
20260831055731 61 267 3.5 7.0 0.00 0.14 0.14 92 1015.3
20260831055631 61 261 3.5 7.0 0.00 0.14 0.14 91 1015.3
20260831055530 61 277 3.5 7.0 0.00 0.14 0.14 91 1015.3
20260831055523 61 262 3.5 7.0 0.00 0.14 0.14 91 1015.3
20260831055519 61 262 3.5 7.0 0.00 0.14 0.14 91 1015.3
20260831055511 61 269 3.5 7.0 0.00 0.14 0.14 91 1015.3
20260831055229 61 247 3.5 7.0 0.00 0.14 0.14 91 1015.3
20260831055129 61 247 3.5 6.1 0.00 0.14 0.14 91 1015.3
20260831055029 61 242 2.6 6.1 0.00 0.14 0.14 92 1015.3
20260831054929 61 223 2.6 6.1 0.00 0.14 0.14 91 1015.3
20260831054829 61 220 2.6 6.1 0.00 0.14 0.14 91 1015.3
20260831054801 61 215 2.6 6.1 0.00 0.14 0.14 91 1015.3
20260831054729 61 237 2.6 6.1 0.00 0.14 0.14 91 1015.3
20260831054629 61 277 2.6 6.1 0.00 0.14 0.14 91 1015.2
20260831054529 61 273 2.6 6.1 0.00 0.14 0.14 91 1015.3
20260831054429 61 290 2.6 7.8 0.00 0.14 0.14 91 1015.3
20260831054329 61 258 2.6 7.8 0.00 0.14 0.14 91 1015.2
20260831054301 61 261 2.6 7.8 0.00 0.14 0.14 91 1015.2
20260831054229 61 261 2.6 7.8 0.00 0.14 0.14 91 1015.2
20260831054128 61 238 2.6 7.8 0.00 0.14 0.14 91 1015.2
20260831054029 61 267 3.5 7.8 0.00 0.14 0.14 91 1015.2
20260831053929 61 250 3.5 7.8 0.00 0.14 0.14 91 1015.2
20260831053829 61 243 3.5 7.8 0.00 0.14 0.14 91 1015.1
20260831053801 61 274 3.5 7.8 0.00 0.14 0.14 91 1015.2
20260831053729 61 263 3.5 7.8 0.00 0.14 0.14 91 1015.2
20260831053629 61 265 3.5 7.8 0.00 0.14 0.14 91 1015.1
20260831053529 61 235 3.5 7.8 0.00 0.14 0.14 91 1015.1
20260831053429 61 253 3.5 7.8 0.00 0.14 0.14 91 1015.2
20260831053329 61 275 3.5 7.8 0.00 0.14 0.14 91 1015.1
20260831053300 61 284 3.5 7.8 0.00 0.14 0.14 91 1015.2
20260831053229 61 215 3.5 7.8 0.00 0.14 0.14 91 1015.2
20260831053129 61 225 3.5 7.8 0.00 0.14 0.14 91 1015.1
20260831053028 61 231 4.3 8.7 0.00 0.14 0.14 91 1015.2
20260831052928 61 252 4.3 8.7 0.00 0.14 0.14 91 1015.2
20260831052829 61 252 4.3 8.7 0.00 0.14 0.14 91 1015.2
20260831052801 61 225 3.5 8.7 0.00 0.14 0.14 91 1015.1
20260831052728 61 223 3.5 8.7 0.00 0.14 0.14 91 1015.1
20260831052628 61 247 3.5 8.7 0.00 0.14 0.14 91 1015.2
20260831052528 61 238 3.5 8.7 0.00 0.14 0.14 91 1015.1
20260831052425 61 229 3.5 8.7 0.00 0.14 0.14 91 1015.2
20260831052320 61 217 3.5 8.7 0.00 0.14 0.14 91 1015.1
20260831052301 61 269 3.5 8.7 0.00 0.14 0.14 91 1015.1
20260831052220 61 227 3.5 8.7 0.00 0.14 0.14 91 1015.1
20260831052121 61 242 3.5 8.7 0.00 0.14 0.14 91 1015.1
20260831052021 61 220 3.5 7.0 0.00 0.14 0.14 91 1015.1
20260831051917 61 221 3.5 7.0 0.00 0.14 0.14 91 1015.1
20260831051817 61 244 3.5 7.8 0.00 0.14 0.14 91 1015.1
20260831051801 61 232 3.5 7.8 0.00 0.14 0.14 91 1015.1
20260831051716 61 232 3.5 7.8 0.00 0.14 0.14 91 1015.1
20260831051614 61 240 3.5 7.8 0.00 0.14 0.14 91 1015.1
20260831051514 61 242 3.5 7.8 0.00 0.14 0.14 91 1015.2
20260831051412 61 251 3.5 7.8 0.00 0.14 0.14 91 1015.1
20260831051306 61 244 3.5 7.8 0.00 0.14 0.14 90 1015.1
20260831051301 61 230 3.5 7.8 0.00 0.14 0.14 90 1015.1
20260831051206 61 249 3.5 7.8 0.00 0.14 0.14 90 1015.1
20260831051107 61 273 3.5 7.8 0.00 0.14 0.14 91 1015.1
20260831051007 61 260 3.5 7.8 0.00 0.14 0.14 91 1015.1
20260831050905 61 267 3.5 7.8 0.00 0.14 0.14 91 1015.1
20260831050801 61 255 3.5 8.7 0.00 0.14 0.14 90 1015.1
20260831050707 61 276 4.3 8.7 0.00 0.14 0.14 90 1015.1
20260831050606 61 231 4.3 11.3 0.00 0.14 0.14 90 1015.1
20260831050506 61 256 4.3 11.3 0.00 0.14 0.14 90 1015.1
20260831050406 61 208 4.3 11.3 0.00 0.14 0.14 90 1015.1
20260831050306 61 230 4.3 11.3 0.00 0.14 0.14 90 1015.1
20260831050301 61 229 4.3 11.3 0.00 0.14 0.14 90 1015.1
20260831050206 61 224 5.2 11.3 0.00 0.14 0.14 90 1015.0
20260831050107 61 225 5.2 11.3 0.00 0.14 0.14 90 1015.1
20260831050005 61 269 5.2 11.3 0.00 0.14 0.14 90 1015.1
20260831045904 61 260 5.2 11.3 0.00 0.14 0.14 90 1015.1
20260831045801 61 219 5.2 11.3 0.00 0.14 0.14 90 1015.0
20260831045702 61 212 5.2 11.3 0.00 0.14 0.14 90 1015.0
20260831045602 61 183 5.2 9.6 0.00 0.14 0.14 91 1015.0
20260831045502 61 234 4.3 9.6 0.00 0.14 0.14 91 1015.0
20260831045401 61 260 5.2 9.6 0.00 0.14 0.14 91 1015.1
20260831045301 61 226 5.2 9.6 0.00 0.14 0.14 91 1015.1
20260831045201 61 240 5.2 12.2 0.00 0.14 0.14 91 1015.0
20260831045101 61 236 5.2 12.2 0.00 0.14 0.14 91 1015.0
20260831045001 61 230 5.2 12.2 0.00 0.14 0.14 91 1015.0
20260831044901 61 221 5.2 12.2 0.00 0.14 0.14 91 1014.9
20260831044801 61 219 5.2 12.2 0.00 0.15 0.14 91 1015.0
20260831044702 61 223 5.2 12.2 0.00 0.15 0.14 91 1014.9
20260831044601 61 219 5.2 12.2 0.00 0.15 0.14 91 1015.0
20260831044501 61 258 5.2 12.2 0.00 0.15 0.14 91 1014.9
20260831044401 60 209 5.2 12.2 0.00 0.15 0.14 91 1014.8
20260831044301 60 216 5.2 12.2 0.00 0.15 0.14 91 1014.9
20260831044201 60 211 5.2 11.3 0.00 0.15 0.14 91 1014.9
20260831044101 60 193 5.2 10.4 0.00 0.15 0.14 91 1014.9
20260831044001 60 200 5.2 10.4 0.00 0.15 0.14 91 1014.8
20260831043901 60 216 5.2 12.2 0.00 0.15 0.14 91 1014.8
20260831043801 60 222 5.2 12.2 0.00 0.15 0.14 91 1014.9
20260831043701 60 236 5.2 12.2 0.00 0.15 0.14 91 1014.9
20260831043601 60 221 5.2 12.2 0.00 0.15 0.14 91 1014.9
20260831043501 60 221 5.2 12.2 0.00 0.15 0.14 91 1014.9
20260831043400 60 211 5.2 12.2 0.00 0.15 0.14 91 1014.9
20260831043300 60 205 5.2 12.2 0.00 0.15 0.14 91 1014.9
20260831043200 60 204 5.2 12.2 0.00 0.15 0.14 91 1014.9
20260831043100 60 228 5.2 12.2 0.00 0.15 0.14 91 1014.9
20260831043001 60 213 4.3 12.2 0.00 0.15 0.14 91 1015.0
20260831042901 60 212 5.2 10.4 0.00 0.15 0.14 91 1014.8
20260831042801 60 209 5.2 9.6 0.00 0.15 0.14 91 1015.0
20260831042701 60 255 5.2 9.6 0.00 0.15 0.14 91 1014.9
20260831042601 60 242 5.2 9.6 0.00 0.15 0.14 91 1014.9
20260831042500 60 248 5.2 10.4 0.00 0.15 0.14 91 1014.9
20260831042401 60 207 5.2 10.4 0.00 0.15 0.14 91 1014.9
20260831042301 60 221 5.2 10.4 0.00 0.15 0.14 90 1014.9
20260831042201 60 238 5.2 10.4 0.00 0.15 0.14 91 1014.9
20260831042101 60 231 4.3 10.4 0.00 0.15 0.14 91 1014.9
20260831042001 60 220 4.3 10.4 0.00 0.15 0.14 91 1014.9
20260831041901 60 234 4.3 11.3 0.00 0.15 0.14 91 1014.9
20260831041801 60 221 4.3 11.3 0.00 0.15 0.14 91 1014.9
20260831041701 60 248 4.3 11.3 0.00 0.15 0.14 90 1014.8
20260831041601 60 216 4.3 11.3 0.00 0.15 0.14 90 1014.8
20260831041501 60 205 4.3 11.3 0.00 0.15 0.14 90 1014.9
20260831041401 60 234 4.3 11.3 0.00 0.15 0.14 90 1014.9
20260831041301 60 246 4.3 11.3 0.00 0.15 0.14 91 1014.9
20260831041201 60 218 4.3 11.3 0.00 0.15 0.14 91 1014.8
20260831041101 60 234 5.2 11.3 0.00 0.15 0.14 91 1014.8
20260831041000 60 231 5.2 12.2 0.00 0.15 0.14 91 1014.8
20260831040900 60 254 5.2 12.2 0.00 0.15 0.14 91 1014.8
20260831040801 60 259 5.2 12.2 0.00 0.15 0.14 91 1014.8
20260831040700 60 232 5.2 12.2 0.00 0.15 0.14 91 1014.7
20260831040600 60 228 4.3 12.2 0.00 0.15 0.14 91 1014.8
20260831040524 60 220 4.3 12.2 0.00 0.15 0.14 90 1014.7
20260831040520 60 219 4.3 12.2 0.00 0.15 0.14 90 1014.8
20260831040513 60 220 4.3 12.2 0.00 0.15 0.14 91 1014.8
20260831040200 60 194 4.3 12.2 0.00 0.15 0.14 91 1014.8
20260831040100 60 222 3.5 12.2 0.00 0.15 0.14 91 1014.8
20260831040023 60 196 4.3 7.8 0.00 0.15 0.14 91 1014.7
20260831040020 60 225 3.5 7.8 0.00 0.15 0.14 91 1014.8
20260831040012 60 194 3.5 7.8 0.00 0.15 0.14 91 1014.7
20260831035701 60 227 3.5 7.8 0.00 0.15 0.14 91 1014.8
20260831035601 60 202 3.5 8.7 0.00 0.15 0.14 91 1014.8
20260831035502 60 217 3.5 8.7 0.00 0.15 0.14 91 1014.7
20260831035401 60 221 3.5 8.7 0.00 0.15 0.14 91 1014.7
20260831035306 60 178 3.5 8.7 0.00 0.15 0.14 91 1014.6
20260831035201 60 198 3.5 8.7 0.00 0.15 0.14 91 1014.7
20260831035101 60 229 3.5 8.7 0.00 0.15 0.14 91 1014.6
20260831035025 60 206 3.5 8.7 0.00 0.15 0.14 91 1014.6
20260831035021 60 225 3.5 8.7 0.00 0.15 0.14 91 1014.6
20260831035014 60 225 3.5 8.7 0.00 0.15 0.14 90 1014.6
20260831034701 60 227 4.3 8.7 0.01 0.15 0.14 91 1014.6
20260831034601 60 204 4.3 8.7 0.01 0.15 0.14 91 1014.6
20260831034501 60 259 4.3 9.6 0.01 0.15 0.14 91 1014.6
20260831034401 60 234 3.5 9.6 0.01 0.15 0.14 91 1014.6
20260831034301 60 212 3.5 9.6 0.01 0.15 0.14 91 1014.6
20260831034201 60 205 3.5 9.6 0.01 0.15 0.14 91 1014.7
20260831034101 60 198 3.5 9.6 0.01 0.15 0.14 91 1014.6
20260831034023 60 209 3.5 9.6 0.02 0.15 0.14 91 1014.7
20260831034019 60 216 3.5 9.6 0.02 0.15 0.14 91 1014.7
20260831034011 60 203 3.5 9.6 0.02 0.15 0.14 91 1014.7
20260831033701 60 190 3.5 9.6 0.02 0.15 0.14 91 1014.7
20260831033601 60 226 3.5 9.6 0.02 0.15 0.14 91 1014.7
20260831033501 60 199 3.5 7.8 0.02 0.15 0.14 91 1014.8
20260831033400 60 219 3.5 7.8 0.02 0.15 0.14 91 1014.8
20260831033301 60 207 3.5 7.8 0.03 0.15 0.14 91 1014.7
20260831033200 60 217 3.5 7.8 0.03 0.15 0.14 91 1014.8
20260831033100 60 217 3.5 7.0 0.03 0.15 0.14 91 1014.7
20260831033023 60 214 3.5 7.0 0.03 0.15 0.14 91 1014.6
20260831033019 60 248 3.5 7.0 0.03 0.15 0.14 91 1014.8
20260831033012 60 207 3.5 7.0 0.03 0.15 0.14 91 1014.7
20260831032701 60 221 3.5 7.0 0.04 0.15 0.14 91 1014.7
20260831032601 60 209 3.5 7.0 0.04 0.15 0.14 91 1014.7
20260831032501 60 207 3.5 7.8 0.04 0.15 0.14 91 1014.8
20260831032401 60 206 3.5 7.8 0.05 0.15 0.14 91 1014.8
20260831032301 60 233 3.5 7.8 0.06 0.15 0.14 91 1014.8
20260831032201 60 235 3.5 7.8 0.06 0.15 0.14 91 1014.8
20260831032101 60 227 3.5 7.8 0.08 0.15 0.14 91 1014.8
20260831032025 60 210 3.5 7.8 0.08 0.15 0.14 91 1014.8
20260831032021 60 215 3.5 7.8 0.09 0.15 0.14 92 1014.8
20260831032013 60 211 3.5 7.8 0.10 0.15 0.14 92 1014.8
20260831031701 60 236 3.5 7.8 0.11 0.15 0.14 92 1014.8
20260831031601 60 243 3.5 7.8 0.12 0.15 0.14 92 1014.8
20260831031501 60 215 3.5 7.0 0.12 0.15 0.14 92 1014.8
20260831031401 60 259 2.6 7.0 0.12 0.15 0.14 92 1014.8
20260831031301 60 232 2.6 7.0 0.12 0.15 0.14 92 1014.7
20260831031201 60 218 2.6 7.0 0.12 0.15 0.14 92 1014.8
20260831031101 60 285 2.6 7.0 0.12 0.15 0.14 92 1014.8
20260831031000 60 230 2.6 7.0 0.12 0.15 0.14 92 1014.8
20260831030900 60 257 2.6 7.0 0.12 0.15 0.14 92 1014.8
20260831030802 60 225 2.6 7.0 0.12 0.15 0.14 92 1014.8
20260831030758 61 225 2.6 7.0 0.12 0.15 0.14 92 1014.8
20260831030658 60 225 2.6 7.0 0.12 0.15 0.14 92 1014.8